Time,TemperatureF,DewpointF,PressureIn,WindDirection,WindDirectionDegrees,WindSpeedMPH,WindSpeedGustMPH,Humidity,HourlyPrecipIn,Conditions,Clouds,dailyrainin,SoftwareType,DateUTC
2013-12-07 00:01:00,32.4,32.2,30.14,NNE,25,0.0,0.0,99,0.00,,,0.00,WeatherCatV1.22B15,2013-12-07 05:01:00,
2013-12-07 00:02:00,32.4,32.2,30.14,NNE,25,0.0,1.0,99,0.00,,,0.00,WeatherCatV1.22B15,2013-12-07 05:02:00,
2013-12-07 00:03:00,32.4,32.2,30.14,NNE,25,0.0,1.0,99,0.00,,,0.00,WeatherCatV1.22B15,2013-12-07 05:03:00,
2013-12-07 00:06:00,32.4,32.2,30.14,NNE,25,0.0,0.0,99,0.00,,,0.00,WeatherCatV1.22B15,2013-12-07 05:06:00,
2013-12-07 00:07:00,32.4,32.2,30.14,NNE,25,0.0,0.0,99,0.00,,,0.00,WeatherCatV1.22B15,2013-12-07 05:07:00,
2013-12-07 00:08:00,32.4,32.2,30.13,NNE,25,0.0,0.0,99,0.00,,,0.00,WeatherCatV1.22B15,2013-12-07 05:08:00,
2013-12-07 00:09:00,32.4,32.2,30.14,NNE,25,0.0,0.0,99,0.00,,,0.00,WeatherCatV1.22B15,2013-12-07 05:09:00,
2013-12-07 00:12:00,32.4,32.2,30.13,NNE,25,0.0,0.0,99,0.00,,,0.00,WeatherCatV1.22B15,2013-12-07 05:12:00,
2013-12-07 00:13:00,32.4,32.2,30.13,NNE,25,0.0,0.0,99,0.00,,,0.00,WeatherCatV1.22B15,2013-12-07 05:13:00,
2013-12-07 00:15:00,32.3,32.0,30.14,NNE,25,0.0,0.0,99,0.00,,,0.00,WeatherCatV1.22B15,2013-12-07 05:15:00,
2013-12-07 00:17:00,32.4,32.2,30.13,NNE,25,0.0,0.0,99,0.00,,,0.00,WeatherCatV1.22B15,2013-12-07 05:17:00,
2013-12-07 00:18:00,32.4,32.4,30.13,NNE,25,0.0,0.0,100,0.00,,,0.00,WeatherCatV1.22B15,2013-12-07 05:18:00,
2013-12-07 00:19:00,32.4,32.2,30.14,NNE,25,0.0,0.0,99,0.00,,,0.00,WeatherCatV1.22B15,2013-12-07 05:19:00,
2013-12-07 00:22:00,32.4,32.2,30.13,NNE,25,0.0,0.0,99,0.00,,,0.00,WeatherCatV1.22B15,2013-12-07 05:22:00,
2013-12-07 00:24:00,32.4,32.4,30.14,NNE,25,0.0,0.0,100,0.00,,,0.00,WeatherCatV1.22B15,2013-12-07 05:24:00,
2013-12-07 00:26:00,32.4,32.2,30.14,NNE,25,0.0,2.0,99,0.00,,,0.00,WeatherCatV1.22B15,2013-12-07 05:26:00,
2013-12-07 00:27:00,32.4,32.4,30.14,NNE,25,0.0,2.0,100,0.00,,,0.00,WeatherCatV1.22B15,2013-12-07 05:27:00,
2013-12-07 00:28:00,32.4,32.2,30.14,NNE,25,0.0,2.0,99,0.00,,,0.00,WeatherCatV1.22B15,2013-12-07 05:28:00,
2013-12-07 00:29:00,32.3,32.0,30.14,NNE,25,0.0,0.0,99,0.00,,,0.00,WeatherCatV1.22B15,2013-12-07 05:29:00,
2013-12-07 00:30:00,32.4,32.4,30.14,NNE,25,0.0,0.0,100,0.00,,,0.00,WeatherCatV1.22B15,2013-12-07 05:30:00,
2013-12-07 00:33:00,32.4,32.2,30.15,NNE,25,0.0,1.0,99,0.00,,,0.00,WeatherCatV1.22B15,2013-12-07 05:33:00,
2013-12-07 00:35:00,32.4,32.4,30.15,NNE,25,0.0,0.0,100,0.00,,,0.00,WeatherCatV1.22B15,2013-12-07 05:35:00,
2013-12-07 00:36:00,32.4,32.4,30.14,NNE,25,0.0,0.0,100,0.00,,,0.00,WeatherCatV1.22B15,2013-12-07 05:36:00,
2013-12-07 00:38:00,32.4,32.2,30.14,NNE,25,2.0,2.0,99,0.00,,,0.00,WeatherCatV1.22B15,2013-12-07 05:38:00,
2013-12-07 00:40:00,32.4,32.4,30.15,NNE,25,0.0,4.0,100,0.00,,,0.00,WeatherCatV1.22B15,2013-12-07 05:40:00,
2013-12-07 00:43:00,32.4,32.4,30.14,NNE,25,3.0,4.0,100,0.00,,,0.00,WeatherCatV1.22B15,2013-12-07 05:43:00,
2013-12-07 00:44:00,32.4,32.4,30.14,NNE,25,1.0,3.0,100,0.00,,,0.00,WeatherCatV1.22B15,2013-12-07 05:44:00,
2013-12-07 00:47:00,32.2,32.2,30.14,NNE,25,3.0,4.0,100,0.00,,,0.00,WeatherCatV1.22B15,2013-12-07 05:47:00,
2013-12-07 00:49:00,32.2,32.0,30.14,NNE,25,4.0,4.0,99,0.00,,,0.00,WeatherCatV1.22B15,2013-12-07 05:49:00,
2013-12-07 00:50:00,32.2,32.2,30.12,NNE,25,1.0,4.0,100,0.00,,,0.00,WeatherCatV1.22B15,2013-12-07 05:50:00,
2013-12-07 00:51:00,32.2,32.2,30.13,NNE,25,0.0,3.0,100,0.00,,,0.00,WeatherCatV1.22B15,2013-12-07 05:51:00,
2013-12-07 00:52:00,32.2,32.2,30.14,NNE,25,3.0,3.0,100,0.00,,,0.00,WeatherCatV1.22B15,2013-12-07 05:52:00,
2013-12-07 00:54:00,32.2,32.2,30.14,NNE,25,0.0,3.0,100,0.00,,,0.00,WeatherCatV1.22B15,2013-12-07 05:54:00,
2013-12-07 00:55:00,32.2,32.2,30.14,NNE,28,1.0,4.0,100,0.00,,,0.00,WeatherCatV1.22B15,2013-12-07 05:55:00,
2013-12-07 00:56:00,32.2,32.2,30.13,NNE,28,2.0,4.0,100,0.00,,,0.00,WeatherCatV1.22B15,2013-12-07 05:56:00,
2013-12-07 00:57:00,32.2,32.2,30.13,NNE,28,1.0,4.0,100,0.00,,,0.00,WeatherCatV1.22B15,2013-12-07 05:57:00,
2013-12-07 00:58:00,32.2,32.2,30.13,NNE,28,0.0,3.0,100,0.00,,,0.00,WeatherCatV1.22B15,2013-12-07 05:58:00,
2013-12-07 01:00:00,32.2,32.2,30.12,NNE,28,1.0,2.0,100,0.00,,,0.00,WeatherCatV1.22B15,2013-12-07 06:00:00,
2013-12-07 01:02:00,32.1,32.1,30.11,NNE,28,1.0,2.0,100,0.00,,,0.00,WeatherCatV1.22B15,2013-12-07 06:02:00,
2013-12-07 01:03:00,32.1,31.9,30.12,NNE,28,0.0,3.0,99,0.00,,,0.00,WeatherCatV1.22B15,2013-12-07 06:03:00,
2013-12-07 01:04:00,32.1,32.1,30.11,NNE,28,0.0,0.0,100,0.00,,,0.00,WeatherCatV1.22B15,2013-12-07 06:04:00,
2013-12-07 01:05:00,32.1,32.1,30.11,NNE,28,0.0,0.0,100,0.00,,,0.00,WeatherCatV1.22B15,2013-12-07 06:05:00,
2013-12-07 01:07:00,32.1,32.1,30.12,NNE,28,3.0,3.0,100,0.00,,,0.00,WeatherCatV1.22B15,2013-12-07 06:07:00,
2013-12-07 01:08:00,32.1,32.1,30.12,NNE,28,0.0,3.0,100,0.00,,,0.00,WeatherCatV1.22B15,2013-12-07 06:08:00,
2013-12-07 01:09:00,32.1,32.1,30.12,NNE,28,0.0,2.0,100,0.00,,,0.00,WeatherCatV1.22B15,2013-12-07 06:09:00,
2013-12-07 01:10:00,32.1,32.1,30.11,NNE,28,2.0,3.0,100,0.00,,,0.00,WeatherCatV1.22B15,2013-12-07 06:10:00,
2013-12-07 01:12:00,32.1,32.1,30.11,NNE,28,0.0,0.0,100,0.00,,,0.00,WeatherCatV1.22B15,2013-12-07 06:12:00,
2013-12-07 01:14:00,32.1,31.9,30.11,NNE,28,0.0,0.0,99,0.00,,,0.00,WeatherCatV1.22B15,2013-12-07 06:14:00,
2013-12-07 01:16:00,32.1,32.1,30.11,NNE,28,0.0,0.0,100,0.00,,,0.00,WeatherCatV1.22B15,2013-12-07 06:16:00,
2013-12-07 01:17:00,32.1,32.1,30.11,NNE,28,0.0,0.0,100,0.00,,,0.00,WeatherCatV1.22B15,2013-12-07 06:17:00,
2013-12-07 01:19:00,32.1,32.1,30.11,NNE,28,0.0,2.0,100,0.00,,,0.00,WeatherCatV1.22B15,2013-12-07 06:19:00,
2013-12-07 01:20:00,32.1,32.1,30.11,NNE,28,0.0,2.0,100,0.00,,,0.00,WeatherCatV1.22B15,2013-12-07 06:20:00,
2013-12-07 01:21:00,32.1,32.1,30.11,NNE,28,0.0,2.0,100,0.00,,,0.00,WeatherCatV1.22B15,2013-12-07 06:21:00,
2013-12-07 01:22:00,32.1,31.9,30.11,NNE,28,0.0,2.0,99,0.00,,,0.00,WeatherCatV1.22B15,2013-12-07 06:22:00,
2013-12-07 01:23:00,32.1,32.1,30.11,NNE,28,0.0,2.0,100,0.00,,,0.00,WeatherCatV1.22B15,2013-12-07 06:23:00,
2013-12-07 01:25:00,32.1,32.1,30.11,NNE,28,0.0,0.0,100,0.00,,,0.00,WeatherCatV1.22B15,2013-12-07 06:25:00,
2013-12-07 01:27:00,32.1,32.1,30.11,NNE,28,0.0,0.0,100,0.00,,,0.00,WeatherCatV1.22B15,2013-12-07 06:27:00,
2013-12-07 01:28:00,32.1,32.1,30.11,NNE,28,0.0,0.0,100,0.00,,,0.00,WeatherCatV1.22B15,2013-12-07 06:28:00,
2013-12-07 01:29:00,32.1,32.1,30.11,NNE,28,1.0,1.0,100,0.00,,,0.00,WeatherCatV1.22B15,2013-12-07 06:29:00,
2013-12-07 01:30:00,32.1,32.1,30.12,NNE,28,0.0,2.0,100,0.00,,,0.00,WeatherCatV1.22B15,2013-12-07 06:30:00,
2013-12-07 01:32:00,32.1,31.9,30.12,NNE,28,0.0,0.0,99,0.00,,,0.00,WeatherCatV1.22B15,2013-12-07 06:32:00,
2013-12-07 01:33:00,32.1,31.9,30.11,NNE,28,0.0,0.0,99,0.00,,,0.00,WeatherCatV1.22B15,2013-12-07 06:33:00,
2013-12-07 01:34:00,32.1,32.1,30.11,NNE,28,0.0,0.0,100,0.00,,,0.00,WeatherCatV1.22B15,2013-12-07 06:34:00,
2013-12-07 01:35:00,32.1,32.1,30.11,NNE,28,1.0,2.0,100,0.00,,,0.00,WeatherCatV1.22B15,2013-12-07 06:35:00,
2013-12-07 01:36:00,32.1,32.1,30.11,NNE,28,0.0,2.0,100,0.00,,,0.00,WeatherCatV1.22B15,2013-12-07 06:36:00,
2013-12-07 01:37:00,32.1,32.1,30.11,NNE,28,0.0,2.0,100,0.00,,,0.00,WeatherCatV1.22B15,2013-12-07 06:37:00,
2013-12-07 01:39:00,32.1,32.1,30.11,NNE,28,1.0,3.0,100,0.00,,,0.01,WeatherCatV1.22B15,2013-12-07 06:39:00,
2013-12-07 01:42:00,32.1,31.9,30.11,NNE,28,0.0,0.0,99,0.00,,,0.01,WeatherCatV1.22B15,2013-12-07 06:42:00,
2013-12-07 01:43:00,32.1,32.1,30.11,NNE,28,1.0,2.0,100,0.00,,,0.01,WeatherCatV1.22B15,2013-12-07 06:43:00,
2013-12-07 01:45:00,32.1,32.1,30.11,NNE,28,0.0,2.0,100,0.00,,,0.01,WeatherCatV1.22B15,2013-12-07 06:45:00,
2013-12-07 01:48:00,32.1,32.1,30.11,NNE,28,0.0,0.0,100,0.00,,,0.01,WeatherCatV1.22B15,2013-12-07 06:48:00,
2013-12-07 01:49:00,32.1,32.1,30.11,NNE,28,0.0,0.0,100,0.00,,,0.01,WeatherCatV1.22B15,2013-12-07 06:49:00,
2013-12-07 01:51:00,32.1,32.1,30.11,NNE,28,0.0,0.0,100,0.00,,,0.01,WeatherCatV1.22B15,2013-12-07 06:51:00,
2013-12-07 01:53:00,32.1,32.1,30.11,NNE,28,0.0,2.0,100,0.00,,,0.01,WeatherCatV1.22B15,2013-12-07 06:53:00,
2013-12-07 01:54:00,32.1,32.1,30.11,NNE,28,0.0,2.0,100,0.00,,,0.01,WeatherCatV1.22B15,2013-12-07 06:54:00,
2013-12-07 01:55:00,32.1,32.1,30.11,NNE,28,0.0,2.0,100,0.00,,,0.01,WeatherCatV1.22B15,2013-12-07 06:55:00,
2013-12-07 01:58:00,32.1,31.9,30.10,NNE,28,0.0,1.0,99,0.00,,,0.01,WeatherCatV1.22B15,2013-12-07 06:58:00,
2013-12-07 01:59:00,32.1,32.1,30.11,NNE,28,1.0,2.0,100,0.00,,,0.01,WeatherCatV1.22B15,2013-12-07 06:59:00,
2013-12-07 02:01:00,32.1,32.1,30.11,NNE,28,0.0,0.0,100,0.00,,,0.01,WeatherCatV1.22B15,2013-12-07 07:01:00,
2013-12-07 02:02:00,32.1,32.1,30.10,NNE,28,0.0,0.0,100,0.00,,,0.01,WeatherCatV1.22B15,2013-12-07 07:02:00,
2013-12-07 02:03:00,32.1,32.1,30.11,NNE,28,0.0,0.0,100,0.00,,,0.01,WeatherCatV1.22B15,2013-12-07 07:03:00,
2013-12-07 02:04:00,32.1,32.1,30.11,NNE,28,0.0,0.0,100,0.00,,,0.01,WeatherCatV1.22B15,2013-12-07 07:04:00,
2013-12-07 02:05:00,32.1,31.9,30.11,NNE,28,0.0,0.0,99,0.00,,,0.01,WeatherCatV1.22B15,2013-12-07 07:05:00,
2013-12-07 02:07:00,32.1,32.1,30.11,NNE,28,0.0,0.0,100,0.00,,,0.01,WeatherCatV1.22B15,2013-12-07 07:07:00,
2013-12-07 02:08:00,32.1,32.1,30.12,NNE,28,0.0,0.0,100,0.00,,,0.01,WeatherCatV1.22B15,2013-12-07 07:08:00,
2013-12-07 02:09:00,32.1,32.1,30.11,NNE,28,0.0,0.0,100,0.00,,,0.01,WeatherCatV1.22B15,2013-12-07 07:09:00,
2013-12-07 02:10:00,32.1,32.1,30.11,NNE,28,0.0,0.0,100,0.00,,,0.01,WeatherCatV1.22B15,2013-12-07 07:10:00,
2013-12-07 02:14:00,32.2,32.2,30.13,NNE,28,0.0,0.0,100,0.00,,,0.01,WeatherCatV1.22B15,2013-12-07 07:14:00,
2013-12-07 02:15:00,32.2,32.2,30.13,NNE,28,0.0,0.0,100,0.00,,,0.01,WeatherCatV1.22B15,2013-12-07 07:15:00,
2013-12-07 02:16:00,32.2,32.2,30.14,NNE,28,0.0,0.0,100,0.00,,,0.01,WeatherCatV1.22B15,2013-12-07 07:16:00,
2013-12-07 02:18:00,32.2,32.2,30.14,NNE,28,0.0,3.0,100,0.00,,,0.01,WeatherCatV1.22B15,2013-12-07 07:18:00,
2013-12-07 02:19:00,32.2,32.2,30.13,NNE,28,0.0,3.0,100,0.00,,,0.01,WeatherCatV1.22B15,2013-12-07 07:19:00,
2013-12-07 02:23:00,32.2,32.2,30.14,NNE,28,0.0,0.0,100,0.00,,,0.01,WeatherCatV1.22B15,2013-12-07 07:23:00,
2013-12-07 02:24:00,32.2,32.0,30.13,NNE,28,0.0,0.0,99,0.00,,,0.01,WeatherCatV1.22B15,2013-12-07 07:24:00,
2013-12-07 02:26:00,32.2,32.2,30.14,NNE,28,0.0,0.0,100,0.00,,,0.01,WeatherCatV1.22B15,2013-12-07 07:26:00,
2013-12-07 02:27:00,32.2,32.2,30.14,NNE,28,0.0,0.0,100,0.00,,,0.01,WeatherCatV1.22B15,2013-12-07 07:27:00,
2013-12-07 02:28:00,32.2,32.2,30.13,NNE,28,0.0,0.0,100,0.00,,,0.01,WeatherCatV1.22B15,2013-12-07 07:28:00,
2013-12-07 02:29:00,32.2,32.2,30.13,NNE,28,0.0,0.0,100,0.00,,,0.01,WeatherCatV1.22B15,2013-12-07 07:29:00,
2013-12-07 02:31:00,32.2,32.0,30.13,NNE,28,0.0,0.0,99,0.00,,,0.01,WeatherCatV1.22B15,2013-12-07 07:31:00,
2013-12-07 02:32:00,32.2,32.2,30.13,NNE,28,0.0,0.0,100,0.00,,,0.01,WeatherCatV1.22B15,2013-12-07 07:32:00,
2013-12-07 02:33:00,32.2,32.2,30.14,NNE,28,0.0,0.0,100,0.00,,,0.01,WeatherCatV1.22B15,2013-12-07 07:33:00,
2013-12-07 02:34:00,32.2,32.2,30.14,NNE,28,0.0,0.0,100,0.00,,,0.01,WeatherCatV1.22B15,2013-12-07 07:34:00,
2013-12-07 02:36:00,32.2,32.2,30.14,NNE,28,0.0,0.0,100,0.00,,,0.01,WeatherCatV1.22B15,2013-12-07 07:36:00,
2013-12-07 02:37:00,32.2,32.2,30.13,NNE,28,0.0,0.0,100,0.00,,,0.01,WeatherCatV1.22B15,2013-12-07 07:37:00,
2013-12-07 02:39:00,32.2,32.2,30.13,NNE,28,0.0,1.0,100,0.00,,,0.01,WeatherCatV1.22B15,2013-12-07 07:39:00,
2013-12-07 02:40:00,32.2,32.2,30.12,NNE,28,0.0,0.0,100,0.00,,,0.01,WeatherCatV1.22B15,2013-12-07 07:40:00,
2013-12-07 02:43:00,32.2,32.2,30.13,NNE,28,0.0,0.0,100,0.00,,,0.01,WeatherCatV1.22B15,2013-12-07 07:43:00,
2013-12-07 02:44:00,32.2,32.2,30.13,NNE,28,0.0,0.0,100,0.00,,,0.01,WeatherCatV1.22B15,2013-12-07 07:44:00,
2013-12-07 02:45:00,32.2,32.2,30.13,NNE,28,0.0,0.0,100,0.00,,,0.01,WeatherCatV1.22B15,2013-12-07 07:45:00,
2013-12-07 02:48:00,32.2,32.2,30.11,NNE,28,0.0,0.0,100,0.00,,,0.01,WeatherCatV1.22B15,2013-12-07 07:48:00,
2013-12-07 02:50:00,32.2,32.2,30.10,NNE,28,0.0,1.0,100,0.00,,,0.01,WeatherCatV1.22B15,2013-12-07 07:50:00,
2013-12-07 02:52:00,32.2,32.2,30.11,NNE,28,0.0,0.0,100,0.00,,,0.01,WeatherCatV1.22B15,2013-12-07 07:52:00,
2013-12-07 02:53:00,32.2,32.2,30.12,NNE,28,0.0,0.0,100,0.00,,,0.01,WeatherCatV1.22B15,2013-12-07 07:53:00,
2013-12-07 02:55:00,32.2,32.2,30.13,NNE,28,0.0,0.0,100,0.00,,,0.01,WeatherCatV1.22B15,2013-12-07 07:55:00,
2013-12-07 02:56:00,32.2,32.2,30.12,NNE,28,0.0,0.0,100,0.00,,,0.01,WeatherCatV1.22B15,2013-12-07 07:56:00,
2013-12-07 02:59:00,32.2,32.2,30.14,NNE,28,0.0,0.0,100,0.00,,,0.01,WeatherCatV1.22B15,2013-12-07 07:59:00,
2013-12-07 03:00:00,32.2,32.2,30.14,NNE,28,0.0,0.0,100,0.00,,,0.01,WeatherCatV1.22B15,2013-12-07 08:00:00,
2013-12-07 03:01:00,32.2,32.2,30.14,NNE,28,0.0,0.0,100,0.00,,,0.01,WeatherCatV1.22B15,2013-12-07 08:01:00,
2013-12-07 03:04:00,32.2,32.2,30.14,NNE,28,0.0,0.0,100,0.00,,,0.01,WeatherCatV1.22B15,2013-12-07 08:04:00,
2013-12-07 03:06:00,32.3,32.3,30.13,NNE,28,0.0,0.0,100,0.00,,,0.01,WeatherCatV1.22B15,2013-12-07 08:06:00,
2013-12-07 03:07:00,32.2,32.2,30.14,NNE,28,0.0,0.0,100,0.00,,,0.01,WeatherCatV1.22B15,2013-12-07 08:07:00,
2013-12-07 03:08:00,32.2,32.2,30.14,NNE,28,0.0,0.0,100,0.00,,,0.01,WeatherCatV1.22B15,2013-12-07 08:08:00,
2013-12-07 03:09:00,32.2,32.2,30.13,NNE,28,0.0,0.0,100,0.00,,,0.01,WeatherCatV1.22B15,2013-12-07 08:09:00,
2013-12-07 03:10:00,32.2,32.2,30.13,NNE,28,0.0,0.0,100,0.00,,,0.01,WeatherCatV1.22B15,2013-12-07 08:10:00,
2013-12-07 03:11:00,32.2,32.2,30.13,NNE,28,0.0,0.0,100,0.00,,,0.01,WeatherCatV1.22B15,2013-12-07 08:11:00,
2013-12-07 03:13:00,32.2,32.2,30.13,NNE,28,0.0,0.0,100,0.00,,,0.01,WeatherCatV1.22B15,2013-12-07 08:13:00,
2013-12-07 03:16:00,32.2,32.2,30.14,NNE,28,0.0,0.0,100,0.00,,,0.01,WeatherCatV1.22B15,2013-12-07 08:16:00,
2013-12-07 03:17:00,32.2,32.2,30.14,NNE,28,0.0,0.0,100,0.00,,,0.01,WeatherCatV1.22B15,2013-12-07 08:17:00,
2013-12-07 03:18:00,32.2,32.2,30.14,NNE,28,0.0,0.0,100,0.00,,,0.01,WeatherCatV1.22B15,2013-12-07 08:18:00,
2013-12-07 03:19:00,32.2,32.2,30.14,NNE,28,0.0,0.0,100,0.00,,,0.01,WeatherCatV1.22B15,2013-12-07 08:19:00,
2013-12-07 03:22:00,32.2,32.2,30.14,NNE,28,0.0,0.0,100,0.00,,,0.01,WeatherCatV1.22B15,2013-12-07 08:22:00,
2013-12-07 03:23:00,32.2,32.2,30.14,NNE,28,0.0,0.0,100,0.00,,,0.01,WeatherCatV1.22B15,2013-12-07 08:23:00,
2013-12-07 03:25:00,32.2,32.2,30.14,NNE,28,0.0,0.0,100,0.00,,,0.01,WeatherCatV1.22B15,2013-12-07 08:25:00,
2013-12-07 03:26:00,32.2,32.2,30.14,NNE,28,0.0,0.0,100,0.00,,,0.01,WeatherCatV1.22B15,2013-12-07 08:26:00,
2013-12-07 03:27:00,32.2,32.2,30.14,NNE,28,0.0,0.0,100,0.00,,,0.01,WeatherCatV1.22B15,2013-12-07 08:27:00,
2013-12-07 03:28:00,32.2,32.2,30.15,NNE,28,0.0,0.0,100,0.00,,,0.01,WeatherCatV1.22B15,2013-12-07 08:28:00,
2013-12-07 03:29:00,32.2,32.2,30.15,NNE,28,0.0,0.0,100,0.00,,,0.01,WeatherCatV1.22B15,2013-12-07 08:29:00,
2013-12-07 03:30:00,32.2,32.2,30.14,NNE,28,0.0,0.0,100,0.00,,,0.01,WeatherCatV1.22B15,2013-12-07 08:30:00,
2013-12-07 03:31:00,32.2,32.2,30.14,NNE,28,0.0,0.0,100,0.00,,,0.01,WeatherCatV1.22B15,2013-12-07 08:31:00,
2013-12-07 03:33:00,32.2,32.2,30.14,NNE,28,0.0,0.0,100,0.00,,,0.01,WeatherCatV1.22B15,2013-12-07 08:33:00,
2013-12-07 03:34:00,32.2,32.2,30.13,NNE,28,0.0,0.0,100,0.00,,,0.01,WeatherCatV1.22B15,2013-12-07 08:34:00,
2013-12-07 03:35:00,32.2,32.2,30.13,NNE,28,0.0,0.0,100,0.00,,,0.01,WeatherCatV1.22B15,2013-12-07 08:35:00,
2013-12-07 03:36:00,32.2,32.2,30.14,NNE,28,0.0,0.0,100,0.00,,,0.01,WeatherCatV1.22B15,2013-12-07 08:36:00,
2013-12-07 03:38:00,32.2,32.2,30.14,NNE,28,0.0,0.0,100,0.00,,,0.01,WeatherCatV1.22B15,2013-12-07 08:38:00,
2013-12-07 03:39:00,32.2,32.2,30.14,NNE,28,0.0,0.0,100,0.00,,,0.01,WeatherCatV1.22B15,2013-12-07 08:39:00,
2013-12-07 03:40:00,32.2,32.2,30.14,NNE,28,0.0,0.0,100,0.00,,,0.01,WeatherCatV1.22B15,2013-12-07 08:40:00,
2013-12-07 03:41:00,32.2,32.2,30.14,NNE,28,0.0,0.0,100,0.00,,,0.01,WeatherCatV1.22B15,2013-12-07 08:41:00,
2013-12-07 03:43:00,32.2,32.2,30.13,NNE,28,0.0,0.0,100,0.00,,,0.01,WeatherCatV1.22B15,2013-12-07 08:43:00,
2013-12-07 03:45:00,32.2,32.2,30.14,NNE,28,0.0,0.0,100,0.00,,,0.01,WeatherCatV1.22B15,2013-12-07 08:45:00,
2013-12-07 03:46:00,32.1,32.1,30.14,NNE,28,0.0,0.0,100,0.00,,,0.01,WeatherCatV1.22B15,2013-12-07 08:46:00,
2013-12-07 03:48:00,32.1,32.1,30.14,NNE,28,0.0,0.0,100,0.00,,,0.01,WeatherCatV1.22B15,2013-12-07 08:48:00,
2013-12-07 03:49:00,32.1,32.1,30.14,NNE,28,0.0,0.0,100,0.00,,,0.01,WeatherCatV1.22B15,2013-12-07 08:49:00,
2013-12-07 03:50:00,32.1,32.1,30.14,NNE,28,0.0,0.0,100,0.00,,,0.01,WeatherCatV1.22B15,2013-12-07 08:50:00,
2013-12-07 03:51:00,32.1,32.1,30.14,NNE,28,0.0,0.0,100,0.00,,,0.01,WeatherCatV1.22B15,2013-12-07 08:51:00,
2013-12-07 03:52:00,32.1,32.1,30.14,NNE,28,0.0,0.0,100,0.00,,,0.01,WeatherCatV1.22B15,2013-12-07 08:52:00,
2013-12-07 03:54:00,32.0,32.0,30.14,NNE,28,0.0,0.0,100,0.00,,,0.01,WeatherCatV1.22B15,2013-12-07 08:54:00,
2013-12-07 03:55:00,32.1,32.1,30.14,NNE,28,0.0,0.0,100,0.00,,,0.01,WeatherCatV1.22B15,2013-12-07 08:55:00,
2013-12-07 03:57:00,32.1,32.1,30.14,NNE,28,0.0,0.0,100,0.00,,,0.01,WeatherCatV1.22B15,2013-12-07 08:57:00,
2013-12-07 03:59:00,32.1,32.1,30.14,NNE,28,0.0,0.0,100,0.00,,,0.01,WeatherCatV1.22B15,2013-12-07 08:59:00,
2013-12-07 04:00:00,32.1,32.1,30.14,NNE,28,0.0,0.0,100,0.00,,,0.01,WeatherCatV1.22B15,2013-12-07 09:00:00,
2013-12-07 04:01:00,32.1,32.1,30.15,NNE,28,0.0,0.0,100,0.00,,,0.01,WeatherCatV1.22B15,2013-12-07 09:01:00,
2013-12-07 04:02:00,32.1,32.1,30.15,NNE,28,0.0,0.0,100,0.00,,,0.01,WeatherCatV1.22B15,2013-12-07 09:02:00,
2013-12-07 04:04:00,32.1,32.1,30.15,NNE,28,0.0,0.0,100,0.00,,,0.01,WeatherCatV1.22B15,2013-12-07 09:04:00,
2013-12-07 04:05:00,32.1,32.1,30.15,NNE,28,0.0,0.0,100,0.00,,,0.01,WeatherCatV1.22B15,2013-12-07 09:05:00,
2013-12-07 04:07:00,32.1,32.1,30.15,NNE,28,0.0,0.0,100,0.00,,,0.01,WeatherCatV1.22B15,2013-12-07 09:07:00,
2013-12-07 04:09:00,32.1,32.1,30.15,NNE,28,0.0,0.0,100,0.00,,,0.01,WeatherCatV1.22B15,2013-12-07 09:09:00,
2013-12-07 04:10:00,32.1,32.1,30.15,NNE,28,0.0,0.0,100,0.00,,,0.01,WeatherCatV1.22B15,2013-12-07 09:10:00,
2013-12-07 04:11:00,32.1,32.1,30.15,NNE,28,0.0,0.0,100,0.00,,,0.01,WeatherCatV1.22B15,2013-12-07 09:11:00,
2013-12-07 04:12:00,32.2,32.2,30.15,NNE,28,0.0,0.0,100,0.00,,,0.01,WeatherCatV1.22B15,2013-12-07 09:12:00,
2013-12-07 04:13:00,32.1,32.1,30.15,NNE,28,0.0,0.0,100,0.00,,,0.01,WeatherCatV1.22B15,2013-12-07 09:13:00,
2013-12-07 04:15:00,32.2,32.2,30.15,NNE,28,0.0,0.0,100,0.00,,,0.01,WeatherCatV1.22B15,2013-12-07 09:15:00,
2013-12-07 04:16:00,32.2,32.2,30.15,NNE,28,0.0,0.0,100,0.00,,,0.01,WeatherCatV1.22B15,2013-12-07 09:16:00,
2013-12-07 04:17:00,32.2,32.2,30.15,NNE,28,0.0,0.0,100,0.00,,,0.01,WeatherCatV1.22B15,2013-12-07 09:17:00,
2013-12-07 04:18:00,32.1,32.1,30.16,NNE,28,0.0,0.0,100,0.00,,,0.01,WeatherCatV1.22B15,2013-12-07 09:18:00,
2013-12-07 04:19:00,32.1,32.1,30.16,NNE,28,0.0,0.0,100,0.00,,,0.01,WeatherCatV1.22B15,2013-12-07 09:19:00,
2013-12-07 04:20:00,32.1,32.1,30.15,NNE,28,0.0,0.0,100,0.00,,,0.01,WeatherCatV1.22B15,2013-12-07 09:20:00,
2013-12-07 04:22:00,32.1,32.1,30.16,NNE,28,0.0,0.0,100,0.00,,,0.01,WeatherCatV1.22B15,2013-12-07 09:22:00,
2013-12-07 04:23:00,32.1,32.1,30.16,NNE,28,0.0,0.0,100,0.00,,,0.01,WeatherCatV1.22B15,2013-12-07 09:23:00,
2013-12-07 04:25:00,32.1,32.1,30.16,NNE,28,0.0,0.0,100,0.00,,,0.01,WeatherCatV1.22B15,2013-12-07 09:25:00,
2013-12-07 04:29:00,32.1,32.1,30.15,NNE,28,0.0,0.0,100,0.00,,,0.01,WeatherCatV1.22B15,2013-12-07 09:29:00,
2013-12-07 04:31:00,32.0,32.0,30.15,NNE,28,0.0,0.0,100,0.00,,,0.01,WeatherCatV1.22B15,2013-12-07 09:31:00,
2013-12-07 04:34:00,32.1,32.1,30.15,NNE,28,0.0,0.0,100,0.00,,,0.01,WeatherCatV1.22B15,2013-12-07 09:34:00,
2013-12-07 04:35:00,32.1,32.1,30.15,NNE,28,0.0,0.0,100,0.00,,,0.01,WeatherCatV1.22B15,2013-12-07 09:35:00,
2013-12-07 04:39:00,32.1,32.1,30.15,NNE,28,0.0,0.0,100,0.00,,,0.01,WeatherCatV1.22B15,2013-12-07 09:39:00,
2013-12-07 04:40:00,32.1,32.1,30.15,NNE,28,0.0,0.0,100,0.00,,,0.01,WeatherCatV1.22B15,2013-12-07 09:40:00,
2013-12-07 04:41:00,32.0,32.0,30.15,NNE,28,0.0,0.0,100,0.00,,,0.01,WeatherCatV1.22B15,2013-12-07 09:41:00,
2013-12-07 04:43:00,32.1,32.1,30.15,NNE,28,0.0,0.0,100,0.00,,,0.01,WeatherCatV1.22B15,2013-12-07 09:43:00,
2013-12-07 04:45:00,32.1,32.1,30.15,NNE,28,0.0,0.0,100,0.00,,,0.01,WeatherCatV1.22B15,2013-12-07 09:45:00,
2013-12-07 04:46:00,32.1,32.1,30.16,NNE,28,0.0,0.0,100,0.00,,,0.01,WeatherCatV1.22B15,2013-12-07 09:46:00,
2013-12-07 04:47:00,32.1,32.1,30.15,NNE,28,0.0,0.0,100,0.00,,,0.01,WeatherCatV1.22B15,2013-12-07 09:47:00,
2013-12-07 04:49:00,32.1,32.1,30.15,NNE,28,0.0,0.0,100,0.00,,,0.01,WeatherCatV1.22B15,2013-12-07 09:49:00,
2013-12-07 04:50:00,32.1,32.1,30.15,NNE,28,0.0,0.0,100,0.00,,,0.01,WeatherCatV1.22B15,2013-12-07 09:50:00,
2013-12-07 04:51:00,32.1,32.1,30.15,NNE,28,0.0,0.0,100,0.00,,,0.01,WeatherCatV1.22B15,2013-12-07 09:51:00,
2013-12-07 04:52:00,32.2,32.2,30.16,NNE,28,0.0,0.0,100,0.00,,,0.01,WeatherCatV1.22B15,2013-12-07 09:52:00,
2013-12-07 04:53:00,32.2,32.2,30.15,NNE,28,0.0,0.0,100,0.00,,,0.01,WeatherCatV1.22B15,2013-12-07 09:53:00,
2013-12-07 04:54:00,32.2,32.2,30.15,NNE,28,0.0,0.0,100,0.00,,,0.01,WeatherCatV1.22B15,2013-12-07 09:54:00,
2013-12-07 04:56:00,32.2,32.2,30.16,NNE,28,0.0,0.0,100,0.00,,,0.01,WeatherCatV1.22B15,2013-12-07 09:56:00,
2013-12-07 04:57:00,32.2,32.2,30.15,NNE,28,0.0,0.0,100,0.00,,,0.01,WeatherCatV1.22B15,2013-12-07 09:57:00,
2013-12-07 04:58:00,32.2,32.2,30.16,NNE,28,0.0,0.0,100,0.00,,,0.01,WeatherCatV1.22B15,2013-12-07 09:58:00,
2013-12-07 04:59:00,32.2,32.2,30.16,NNE,28,0.0,0.0,100,0.00,,,0.01,WeatherCatV1.22B15,2013-12-07 09:59:00,
2013-12-07 05:01:00,32.2,32.2,30.16,NNE,28,0.0,0.0,100,0.00,,,0.01,WeatherCatV1.22B15,2013-12-07 10:01:00,
2013-12-07 05:02:00,32.2,32.2,30.16,NNE,28,0.0,0.0,100,0.00,,,0.01,WeatherCatV1.22B15,2013-12-07 10:02:00,
2013-12-07 05:03:00,32.3,32.3,30.16,NNE,28,0.0,0.0,100,0.00,,,0.01,WeatherCatV1.22B15,2013-12-07 10:03:00,
2013-12-07 05:04:00,32.2,32.2,30.16,NNE,28,0.0,0.0,100,0.00,,,0.01,WeatherCatV1.22B15,2013-12-07 10:04:00,
2013-12-07 05:06:00,32.2,32.2,30.16,NNE,28,0.0,0.0,100,0.00,,,0.01,WeatherCatV1.22B15,2013-12-07 10:06:00,
2013-12-07 05:08:00,32.2,32.2,30.16,NNE,28,0.0,0.0,100,0.00,,,0.01,WeatherCatV1.22B15,2013-12-07 10:08:00,
2013-12-07 05:09:00,32.2,32.2,30.17,NNE,28,0.0,0.0,100,0.00,,,0.01,WeatherCatV1.22B15,2013-12-07 10:09:00,
2013-12-07 05:11:00,32.2,32.2,30.17,NNE,28,0.0,0.0,100,0.00,,,0.01,WeatherCatV1.22B15,2013-12-07 10:11:00,
2013-12-07 05:12:00,32.2,32.2,30.16,NNE,28,0.0,0.0,100,0.00,,,0.01,WeatherCatV1.22B15,2013-12-07 10:12:00,
2013-12-07 05:13:00,32.2,32.2,30.16,NNE,28,0.0,0.0,100,0.00,,,0.01,WeatherCatV1.22B15,2013-12-07 10:13:00,
2013-12-07 05:14:00,32.2,32.2,30.16,NNE,28,0.0,0.0,100,0.00,,,0.01,WeatherCatV1.22B15,2013-12-07 10:14:00,
2013-12-07 05:16:00,32.2,32.2,30.16,NNE,28,0.0,0.0,100,0.00,,,0.01,WeatherCatV1.22B15,2013-12-07 10:16:00,
2013-12-07 05:17:00,32.2,32.2,30.17,NNE,28,0.0,0.0,100,0.00,,,0.01,WeatherCatV1.22B15,2013-12-07 10:17:00,
2013-12-07 05:19:00,32.2,32.2,30.17,NNE,28,0.0,0.0,100,0.00,,,0.01,WeatherCatV1.22B15,2013-12-07 10:19:00,
2013-12-07 05:20:00,32.2,32.2,30.17,NNE,28,0.0,0.0,100,0.00,,,0.01,WeatherCatV1.22B15,2013-12-07 10:20:00,
2013-12-07 05:21:00,32.2,32.2,30.17,NNE,28,0.0,0.0,100,0.00,,,0.01,WeatherCatV1.22B15,2013-12-07 10:21:00,
2013-12-07 05:23:00,32.2,32.2,30.17,NNE,28,0.0,0.0,100,0.00,,,0.01,WeatherCatV1.22B15,2013-12-07 10:23:00,
2013-12-07 05:24:00,32.2,32.2,30.17,NNE,28,0.0,0.0,100,0.00,,,0.01,WeatherCatV1.22B15,2013-12-07 10:24:00,
2013-12-07 05:26:00,32.2,32.2,30.17,NNE,28,0.0,0.0,100,0.00,,,0.01,WeatherCatV1.22B15,2013-12-07 10:26:00,
2013-12-07 05:27:00,32.2,32.2,30.17,NNE,28,0.0,0.0,100,0.00,,,0.01,WeatherCatV1.22B15,2013-12-07 10:27:00,
2013-12-07 05:28:00,32.2,32.2,30.17,NNE,28,0.0,0.0,100,0.00,,,0.01,WeatherCatV1.22B15,2013-12-07 10:28:00,
2013-12-07 05:29:00,32.2,32.2,30.17,NNE,28,0.0,0.0,100,0.00,,,0.01,WeatherCatV1.22B15,2013-12-07 10:29:00,
2013-12-07 05:30:00,32.2,32.2,30.17,NNE,28,0.0,0.0,100,0.00,,,0.01,WeatherCatV1.22B15,2013-12-07 10:30:00,
2013-12-07 05:31:00,32.2,32.2,30.17,NNE,28,0.0,0.0,100,0.00,,,0.01,WeatherCatV1.22B15,2013-12-07 10:31:00,
2013-12-07 05:32:00,32.2,32.2,30.17,NNE,28,0.0,0.0,100,0.00,,,0.01,WeatherCatV1.22B15,2013-12-07 10:32:00,
2013-12-07 05:35:00,32.2,32.2,30.17,NNE,28,0.0,0.0,100,0.00,,,0.01,WeatherCatV1.22B15,2013-12-07 10:35:00,
2013-12-07 05:36:00,32.2,32.2,30.17,NNE,28,0.0,0.0,100,0.00,,,0.01,WeatherCatV1.22B15,2013-12-07 10:36:00,
2013-12-07 05:37:00,32.2,32.2,30.17,NNE,28,0.0,0.0,100,0.00,,,0.01,WeatherCatV1.22B15,2013-12-07 10:37:00,
2013-12-07 05:41:00,32.1,32.1,30.17,NNE,28,0.0,0.0,100,0.00,,,0.01,WeatherCatV1.22B15,2013-12-07 10:41:00,
2013-12-07 05:42:00,32.1,32.1,30.17,NNE,28,0.0,0.0,100,0.00,,,0.01,WeatherCatV1.22B15,2013-12-07 10:42:00,
2013-12-07 05:44:00,32.1,32.1,30.17,NNE,28,0.0,0.0,100,0.00,,,0.01,WeatherCatV1.22B15,2013-12-07 10:44:00,
2013-12-07 05:47:00,32.1,32.1,30.18,NNE,28,0.0,0.0,100,0.00,,,0.01,WeatherCatV1.22B15,2013-12-07 10:47:00,
2013-12-07 05:49:00,32.2,32.2,30.18,NNE,28,0.0,0.0,100,0.00,,,0.01,WeatherCatV1.22B15,2013-12-07 10:49:00,
2013-12-07 05:53:00,32.2,32.2,30.18,NNE,28,0.0,0.0,100,0.00,,,0.01,WeatherCatV1.22B15,2013-12-07 10:53:00,
2013-12-07 05:54:00,32.2,32.2,30.18,NNE,28,0.0,0.0,100,0.00,,,0.01,WeatherCatV1.22B15,2013-12-07 10:54:00,
2013-12-07 05:55:00,32.2,32.2,30.18,NNE,28,0.0,0.0,100,0.00,,,0.01,WeatherCatV1.22B15,2013-12-07 10:55:00,
2013-12-07 05:57:00,32.2,32.2,30.17,NNE,28,0.0,0.0,100,0.00,,,0.01,WeatherCatV1.22B15,2013-12-07 10:57:00,
2013-12-07 05:58:00,32.2,32.2,30.17,NNE,28,0.0,0.0,100,0.00,,,0.01,WeatherCatV1.22B15,2013-12-07 10:58:00,
2013-12-07 06:00:00,32.2,32.2,30.17,NNE,28,0.0,0.0,100,0.00,,,0.01,WeatherCatV1.22B15,2013-12-07 11:00:00,
2013-12-07 06:03:00,32.2,32.2,30.18,NNE,28,0.0,0.0,100,0.00,,,0.01,WeatherCatV1.22B15,2013-12-07 11:03:00,
2013-12-07 06:05:00,32.2,32.2,30.18,NNE,28,0.0,0.0,100,0.00,,,0.01,WeatherCatV1.22B15,2013-12-07 11:05:00,
2013-12-07 06:06:00,32.2,32.2,30.17,NNE,28,0.0,0.0,100,0.00,,,0.01,WeatherCatV1.22B15,2013-12-07 11:06:00,
2013-12-07 06:08:00,32.2,32.2,30.18,NNE,28,0.0,0.0,100,0.00,,,0.01,WeatherCatV1.22B15,2013-12-07 11:08:00,
2013-12-07 06:09:00,32.1,32.1,30.18,NNE,28,0.0,0.0,100,0.00,,,0.01,WeatherCatV1.22B15,2013-12-07 11:09:00,
2013-12-07 06:11:00,32.1,32.1,30.18,NNE,28,0.0,0.0,100,0.00,,,0.01,WeatherCatV1.22B15,2013-12-07 11:11:00,
2013-12-07 06:12:00,32.1,32.1,30.18,NNE,28,0.0,0.0,100,0.00,,,0.01,WeatherCatV1.22B15,2013-12-07 11:12:00,
2013-12-07 06:14:00,32.1,32.1,30.18,NNE,28,0.0,0.0,100,0.00,,,0.01,WeatherCatV1.22B15,2013-12-07 11:14:00,
2013-12-07 06:15:00,32.1,32.1,30.17,NNE,28,0.0,0.0,100,0.00,,,0.01,WeatherCatV1.22B15,2013-12-07 11:15:00,
2013-12-07 06:17:00,32.1,32.1,30.18,NNE,28,0.0,0.0,100,0.00,,,0.01,WeatherCatV1.22B15,2013-12-07 11:17:00,
2013-12-07 06:18:00,32.1,32.1,30.18,NNE,28,0.0,0.0,100,0.00,,,0.01,WeatherCatV1.22B15,2013-12-07 11:18:00,
2013-12-07 06:20:00,32.1,32.1,30.18,NNE,28,0.0,0.0,100,0.00,,,0.01,WeatherCatV1.22B15,2013-12-07 11:20:00,
2013-12-07 06:21:00,32.1,32.1,30.18,NNE,28,0.0,0.0,100,0.00,,,0.01,WeatherCatV1.22B15,2013-12-07 11:21:00,
2013-12-07 06:23:00,32.1,32.1,30.19,NNE,28,0.0,0.0,100,0.00,,,0.01,WeatherCatV1.22B15,2013-12-07 11:23:00,
2013-12-07 06:26:00,32.1,32.1,30.18,NNE,28,0.0,0.0,100,0.00,,,0.01,WeatherCatV1.22B15,2013-12-07 11:26:00,
2013-12-07 06:27:00,32.1,32.1,30.19,NNE,28,0.0,0.0,100,0.00,,,0.01,WeatherCatV1.22B15,2013-12-07 11:27:00,
2013-12-07 06:28:00,32.1,32.1,30.19,NNE,28,0.0,0.0,100,0.00,,,0.01,WeatherCatV1.22B15,2013-12-07 11:28:00,
2013-12-07 06:29:00,32.1,32.1,30.19,NNE,28,0.0,0.0,100,0.00,,,0.01,WeatherCatV1.22B15,2013-12-07 11:29:00,
2013-12-07 06:31:00,32.2,32.2,30.19,NNE,28,0.0,0.0,100,0.00,,,0.01,WeatherCatV1.22B15,2013-12-07 11:31:00,
2013-12-07 06:33:00,32.2,32.2,30.18,NNE,28,0.0,0.0,100,0.00,,,0.01,WeatherCatV1.22B15,2013-12-07 11:33:00,
2013-12-07 06:34:00,32.2,32.2,30.18,NNE,28,0.0,0.0,100,0.00,,,0.01,WeatherCatV1.22B15,2013-12-07 11:34:00,
2013-12-07 06:35:00,32.2,32.2,30.18,NNE,28,0.0,0.0,100,0.00,,,0.01,WeatherCatV1.22B15,2013-12-07 11:35:00,
2013-12-07 06:37:00,32.2,32.2,30.18,NNE,28,0.0,0.0,100,0.00,,,0.01,WeatherCatV1.22B15,2013-12-07 11:37:00,
2013-12-07 06:38:00,32.2,32.2,30.19,NNE,28,0.0,0.0,100,0.00,,,0.01,WeatherCatV1.22B15,2013-12-07 11:38:00,
2013-12-07 06:39:00,32.2,32.2,30.19,NNE,28,0.0,0.0,100,0.00,,,0.01,WeatherCatV1.22B15,2013-12-07 11:39:00,
2013-12-07 06:41:00,32.2,32.2,30.19,NNE,28,0.0,0.0,100,0.00,,,0.01,WeatherCatV1.22B15,2013-12-07 11:41:00,
2013-12-07 06:43:00,32.2,32.2,30.19,NNE,28,0.0,0.0,100,0.00,,,0.01,WeatherCatV1.22B15,2013-12-07 11:43:00,
2013-12-07 06:44:00,32.2,32.2,30.19,NNE,28,0.0,0.0,100,0.00,,,0.01,WeatherCatV1.22B15,2013-12-07 11:44:00,
2013-12-07 06:45:00,32.2,32.2,30.19,NNE,28,0.0,0.0,100,0.00,,,0.01,WeatherCatV1.22B15,2013-12-07 11:45:00,
2013-12-07 06:46:00,32.2,32.2,30.19,NNE,28,0.0,0.0,100,0.00,,,0.01,WeatherCatV1.22B15,2013-12-07 11:46:00,
2013-12-07 06:49:00,32.2,32.2,30.19,NNE,28,0.0,0.0,100,0.00,,,0.01,WeatherCatV1.22B15,2013-12-07 11:49:00,
2013-12-07 06:50:00,32.2,32.2,30.19,NNE,28,0.0,0.0,100,0.00,,,0.01,WeatherCatV1.22B15,2013-12-07 11:50:00,
2013-12-07 06:51:00,32.2,32.2,30.19,NNE,28,0.0,0.0,100,0.00,,,0.01,WeatherCatV1.22B15,2013-12-07 11:51:00,
2013-12-07 06:52:00,32.3,32.3,30.19,NNE,28,0.0,0.0,100,0.00,,,0.01,WeatherCatV1.22B15,2013-12-07 11:52:00,
2013-12-07 06:54:00,32.2,32.2,30.18,NNE,28,0.0,0.0,100,0.00,,,0.01,WeatherCatV1.22B15,2013-12-07 11:54:00,
2013-12-07 06:55:00,32.2,32.2,30.19,NNE,28,0.0,0.0,100,0.00,,,0.01,WeatherCatV1.22B15,2013-12-07 11:55:00,
2013-12-07 06:56:00,32.0,32.0,30.18,NNE,28,0.0,0.0,100,0.00,,,0.01,WeatherCatV1.22B15,2013-12-07 11:56:00,
2013-12-07 06:58:00,32.1,32.1,30.19,NNE,28,0.0,0.0,100,0.00,,,0.01,WeatherCatV1.22B15,2013-12-07 11:58:00,
2013-12-07 06:59:00,32.1,32.1,30.19,NNE,28,0.0,0.0,100,0.00,,,0.01,WeatherCatV1.22B15,2013-12-07 11:59:00,
2013-12-07 07:00:00,32.1,32.1,30.20,NNE,28,0.0,0.0,100,0.00,,,0.01,WeatherCatV1.22B15,2013-12-07 12:00:00,
2013-12-07 07:02:00,32.2,32.2,30.19,NNE,28,0.0,0.0,100,0.00,,,0.01,WeatherCatV1.22B15,2013-12-07 12:02:00,
2013-12-07 07:05:00,32.1,32.1,30.19,NNE,28,0.0,0.0,100,0.00,,,0.01,WeatherCatV1.22B15,2013-12-07 12:05:00,
2013-12-07 07:07:00,32.1,32.1,30.18,NNE,28,0.0,0.0,100,0.00,,,0.01,WeatherCatV1.22B15,2013-12-07 12:07:00,
2013-12-07 07:08:00,32.1,32.1,30.19,NNE,28,0.0,0.0,100,0.00,,,0.01,WeatherCatV1.22B15,2013-12-07 12:08:00,
2013-12-07 07:09:00,32.1,32.1,30.19,NNE,28,0.0,0.0,100,0.00,,,0.01,WeatherCatV1.22B15,2013-12-07 12:09:00,
2013-12-07 07:10:00,32.1,32.1,30.19,NNE,28,0.0,0.0,100,0.00,,,0.01,WeatherCatV1.22B15,2013-12-07 12:10:00,
2013-12-07 07:14:00,32.0,32.0,30.18,NNE,28,0.0,0.0,100,0.00,,,0.01,WeatherCatV1.22B15,2013-12-07 12:14:00,
2013-12-07 07:15:00,32.1,32.1,30.18,NNE,28,0.0,0.0,100,0.00,,,0.01,WeatherCatV1.22B15,2013-12-07 12:15:00,
2013-12-07 07:16:00,32.1,32.1,30.19,NNE,28,0.0,0.0,100,0.00,,,0.01,WeatherCatV1.22B15,2013-12-07 12:16:00,
2013-12-07 07:18:00,32.1,32.1,30.19,NNE,28,0.0,0.0,100,0.00,,,0.01,WeatherCatV1.22B15,2013-12-07 12:18:00,
2013-12-07 07:20:00,32.1,32.1,30.19,NNE,28,0.0,0.0,100,0.00,,,0.01,WeatherCatV1.22B15,2013-12-07 12:20:00,
2013-12-07 07:21:00,32.1,32.1,30.19,NNE,28,0.0,0.0,100,0.00,,,0.01,WeatherCatV1.22B15,2013-12-07 12:21:00,
2013-12-07 07:22:00,32.1,32.1,30.19,NNE,28,0.0,0.0,100,0.00,,,0.01,WeatherCatV1.22B15,2013-12-07 12:22:00,
2013-12-07 07:24:00,32.1,32.1,30.19,NNE,28,0.0,0.0,100,0.00,,,0.01,WeatherCatV1.22B15,2013-12-07 12:24:00,
2013-12-07 07:26:00,32.1,32.1,30.20,NNE,28,0.0,0.0,100,0.00,,,0.01,WeatherCatV1.22B15,2013-12-07 12:26:00,
2013-12-07 07:27:00,32.1,32.1,30.19,NNE,28,0.0,0.0,100,0.00,,,0.01,WeatherCatV1.22B15,2013-12-07 12:27:00,
2013-12-07 07:29:00,32.3,32.3,30.20,NNE,28,0.0,0.0,100,0.00,,,0.01,WeatherCatV1.22B15,2013-12-07 12:29:00,
2013-12-07 07:31:00,32.2,32.2,30.20,NNE,28,0.0,0.0,100,0.00,,,0.01,WeatherCatV1.22B15,2013-12-07 12:31:00,
2013-12-07 07:32:00,32.2,32.2,30.20,NNE,28,0.0,0.0,100,0.00,,,0.01,WeatherCatV1.22B15,2013-12-07 12:32:00,
2013-12-07 07:33:00,32.2,32.2,30.20,NNE,28,0.0,0.0,100,0.00,,,0.01,WeatherCatV1.22B15,2013-12-07 12:33:00,
2013-12-07 07:35:00,32.2,32.2,30.20,NNE,28,0.0,0.0,100,0.00,,,0.01,WeatherCatV1.22B15,2013-12-07 12:35:00,
2013-12-07 07:37:00,32.2,32.2,30.20,NNE,28,0.0,0.0,100,0.00,,,0.01,WeatherCatV1.22B15,2013-12-07 12:37:00,
2013-12-07 07:38:00,32.2,32.2,30.20,NNE,28,0.0,0.0,100,0.00,,,0.01,WeatherCatV1.22B15,2013-12-07 12:38:00,
2013-12-07 07:40:00,32.2,32.2,30.20,NNE,28,0.0,0.0,100,0.00,,,0.01,WeatherCatV1.22B15,2013-12-07 12:40:00,
2013-12-07 07:41:00,32.2,32.2,30.20,NNE,28,0.0,0.0,100,0.00,,,0.01,WeatherCatV1.22B15,2013-12-07 12:41:00,
2013-12-07 07:43:00,32.2,32.2,30.20,NNE,28,0.0,0.0,100,0.00,,,0.01,WeatherCatV1.22B15,2013-12-07 12:43:00,
2013-12-07 07:44:00,32.2,32.2,30.20,NNE,28,0.0,0.0,100,0.00,,,0.01,WeatherCatV1.22B15,2013-12-07 12:44:00,
2013-12-07 07:45:00,32.2,32.2,30.20,NNE,28,0.0,0.0,100,0.00,,,0.01,WeatherCatV1.22B15,2013-12-07 12:45:00,
2013-12-07 07:46:00,32.2,32.2,30.19,NNE,28,0.0,0.0,100,0.00,,,0.01,WeatherCatV1.22B15,2013-12-07 12:46:00,
2013-12-07 07:47:00,32.2,32.2,30.20,NNE,28,0.0,0.0,100,0.00,,,0.01,WeatherCatV1.22B15,2013-12-07 12:47:00,
2013-12-07 07:48:00,32.2,32.2,30.21,NNE,28,0.0,0.0,100,0.00,,,0.01,WeatherCatV1.22B15,2013-12-07 12:48:00,
2013-12-07 07:49:00,32.3,32.3,30.20,NNE,28,0.0,0.0,100,0.00,,,0.01,WeatherCatV1.22B15,2013-12-07 12:49:00,
2013-12-07 07:50:00,32.2,32.2,30.21,NNE,28,0.0,0.0,100,0.00,,,0.01,WeatherCatV1.22B15,2013-12-07 12:50:00,
2013-12-07 07:51:00,32.2,32.2,30.20,NNE,28,0.0,0.0,100,0.00,,,0.01,WeatherCatV1.22B15,2013-12-07 12:51:00,
2013-12-07 07:52:00,32.2,32.2,30.21,NNE,28,0.0,0.0,100,0.00,,,0.01,WeatherCatV1.22B15,2013-12-07 12:52:00,
2013-12-07 07:53:00,32.2,32.2,30.21,NNE,28,0.0,0.0,100,0.00,,,0.01,WeatherCatV1.22B15,2013-12-07 12:53:00,
2013-12-07 07:54:00,32.2,32.2,30.21,NNE,28,0.0,0.0,100,0.00,,,0.01,WeatherCatV1.22B15,2013-12-07 12:54:00,
2013-12-07 07:55:00,32.2,32.2,30.20,NNE,28,0.0,0.0,100,0.00,,,0.01,WeatherCatV1.22B15,2013-12-07 12:55:00,
2013-12-07 07:56:00,32.2,32.2,30.21,NNE,28,0.0,0.0,100,0.00,,,0.01,WeatherCatV1.22B15,2013-12-07 12:56:00,
2013-12-07 07:57:00,32.2,32.2,30.21,NNE,28,0.0,0.0,100,0.00,,,0.01,WeatherCatV1.22B15,2013-12-07 12:57:00,
2013-12-07 07:59:00,32.2,32.2,30.21,NNE,28,0.0,0.0,100,0.00,,,0.01,WeatherCatV1.22B15,2013-12-07 12:59:00,
2013-12-07 08:00:00,32.2,32.2,30.21,NNE,28,0.0,0.0,100,0.00,,,0.01,WeatherCatV1.22B15,2013-12-07 13:00:00,
2013-12-07 08:01:00,32.2,32.2,30.21,NNE,28,0.0,0.0,100,0.00,,,0.01,WeatherCatV1.22B15,2013-12-07 13:01:00,
2013-12-07 08:02:00,32.2,32.2,30.21,NNE,28,0.0,0.0,100,0.00,,,0.01,WeatherCatV1.22B15,2013-12-07 13:02:00,
2013-12-07 08:03:00,32.2,32.2,30.21,NNE,28,0.0,0.0,100,0.00,,,0.01,WeatherCatV1.22B15,2013-12-07 13:03:00,
2013-12-07 08:05:00,32.4,32.4,30.21,NNE,28,0.0,0.0,100,0.00,,,0.01,WeatherCatV1.22B15,2013-12-07 13:05:00,
2013-12-07 08:07:00,32.4,32.4,30.21,NNE,28,0.0,0.0,100,0.00,,,0.01,WeatherCatV1.22B15,2013-12-07 13:07:00,
2013-12-07 08:08:00,32.4,32.4,30.21,NNE,28,0.0,0.0,100,0.00,,,0.01,WeatherCatV1.22B15,2013-12-07 13:08:00,
2013-12-07 08:10:00,32.4,32.4,30.21,NNE,28,0.0,0.0,100,0.00,,,0.01,WeatherCatV1.22B15,2013-12-07 13:10:00,
2013-12-07 08:11:00,32.4,32.4,30.22,NNE,28,0.0,0.0,100,0.00,,,0.01,WeatherCatV1.22B15,2013-12-07 13:11:00,
2013-12-07 08:13:00,32.4,32.4,30.21,NNE,28,0.0,0.0,100,0.00,,,0.01,WeatherCatV1.22B15,2013-12-07 13:13:00,
2013-12-07 08:15:00,32.4,32.4,30.21,NNE,28,0.0,0.0,100,0.00,,,0.01,WeatherCatV1.22B15,2013-12-07 13:15:00,
2013-12-07 08:16:00,32.4,32.4,30.20,NNE,28,0.0,0.0,100,0.00,,,0.01,WeatherCatV1.22B15,2013-12-07 13:16:00,
2013-12-07 08:17:00,32.4,32.4,30.21,NNE,28,0.0,0.0,100,0.00,,,0.01,WeatherCatV1.22B15,2013-12-07 13:17:00,
2013-12-07 08:18:00,32.5,32.5,30.22,NNE,28,0.0,0.0,100,0.00,,,0.01,WeatherCatV1.22B15,2013-12-07 13:18:00,
2013-12-07 08:19:00,32.5,32.5,30.22,NNE,28,0.0,0.0,100,0.00,,,0.01,WeatherCatV1.22B15,2013-12-07 13:19:00,
2013-12-07 08:20:00,32.5,32.5,30.21,NNE,28,0.0,0.0,100,0.00,,,0.01,WeatherCatV1.22B15,2013-12-07 13:20:00,
2013-12-07 08:22:00,32.6,32.6,30.22,NNE,28,0.0,0.0,100,0.00,,,0.01,WeatherCatV1.22B15,2013-12-07 13:22:00,
2013-12-07 08:23:00,32.6,32.6,30.22,NNE,28,0.0,0.0,100,0.00,,,0.01,WeatherCatV1.22B15,2013-12-07 13:23:00,
2013-12-07 08:25:00,32.9,32.9,30.22,NNE,28,0.0,0.0,100,0.00,,,0.01,WeatherCatV1.22B15,2013-12-07 13:25:00,
2013-12-07 08:26:00,33.0,33.0,30.22,NNE,28,0.0,0.0,100,0.00,,,0.01,WeatherCatV1.22B15,2013-12-07 13:26:00,
2013-12-07 08:27:00,33.2,33.2,30.21,NNE,28,0.0,0.0,100,0.00,,,0.01,WeatherCatV1.22B15,2013-12-07 13:27:00,
2013-12-07 08:28:00,33.3,33.3,30.22,NNE,28,0.0,0.0,100,0.00,,,0.01,WeatherCatV1.22B15,2013-12-07 13:28:00,
2013-12-07 08:29:00,33.3,33.3,30.21,NNE,28,0.0,0.0,100,0.00,,,0.01,WeatherCatV1.22B15,2013-12-07 13:29:00,
2013-12-07 08:31:00,33.3,33.3,30.22,NNE,28,0.0,0.0,100,0.00,,,0.01,WeatherCatV1.22B15,2013-12-07 13:31:00,
2013-12-07 08:33:00,33.3,33.3,30.22,NNE,28,0.0,2.0,100,0.00,,,0.01,WeatherCatV1.22B15,2013-12-07 13:33:00,
2013-12-07 08:34:00,33.3,33.3,30.22,NNE,28,1.0,2.0,100,0.00,,,0.01,WeatherCatV1.22B15,2013-12-07 13:34:00,
2013-12-07 08:35:00,33.3,33.3,30.22,NNE,28,1.0,2.0,100,0.00,,,0.01,WeatherCatV1.22B15,2013-12-07 13:35:00,
2013-12-07 08:36:00,33.3,33.3,30.22,NNE,28,0.0,2.0,100,0.00,,,0.01,WeatherCatV1.22B15,2013-12-07 13:36:00,
2013-12-07 08:39:00,33.2,33.2,30.23,NNE,28,0.0,1.0,100,0.00,,,0.01,WeatherCatV1.22B15,2013-12-07 13:39:00,
2013-12-07 08:40:00,33.2,33.2,30.21,NNE,28,0.0,1.0,100,0.00,,,0.01,WeatherCatV1.22B15,2013-12-07 13:40:00,
2013-12-07 08:41:00,33.2,33.2,30.22,NNE,28,0.0,0.0,100,0.00,,,0.01,WeatherCatV1.22B15,2013-12-07 13:41:00,
2013-12-07 08:43:00,33.2,33.2,30.22,NNE,28,0.0,0.0,100,0.00,,,0.01,WeatherCatV1.22B15,2013-12-07 13:43:00,
2013-12-07 08:45:00,33.2,33.2,30.22,NNE,28,0.0,0.0,100,0.00,,,0.01,WeatherCatV1.22B15,2013-12-07 13:45:00,
2013-12-07 08:46:00,33.2,33.2,30.22,NNE,28,0.0,0.0,100,0.00,,,0.01,WeatherCatV1.22B15,2013-12-07 13:46:00,
2013-12-07 08:49:00,33.3,33.3,30.23,NNE,27,0.0,0.0,100,0.00,,,0.01,WeatherCatV1.22B15,2013-12-07 13:49:00,
2013-12-07 08:52:00,33.5,33.5,30.23,NNE,27,0.0,0.0,100,0.00,,,0.01,WeatherCatV1.22B15,2013-12-07 13:52:00,
2013-12-07 08:53:00,33.6,33.6,30.23,NNE,28,0.0,0.0,100,0.00,,,0.01,WeatherCatV1.22B15,2013-12-07 13:53:00,
2013-12-07 08:55:00,33.8,33.8,30.23,NNE,27,0.0,0.0,100,0.00,,,0.01,WeatherCatV1.22B15,2013-12-07 13:55:00,
2013-12-07 08:57:00,34.1,34.1,30.23,NNE,28,0.0,0.0,100,0.00,,,0.02,WeatherCatV1.22B15,2013-12-07 13:57:00,
2013-12-07 08:58:00,34.2,34.2,30.23,NNE,28,0.0,0.0,100,0.00,,,0.02,WeatherCatV1.22B15,2013-12-07 13:58:00,
2013-12-07 09:01:00,34.6,34.6,30.23,NNE,28,0.0,1.0,100,0.00,,,0.02,WeatherCatV1.22B15,2013-12-07 14:01:00,
2013-12-07 09:02:00,34.6,34.6,30.23,NNE,28,0.0,1.0,100,0.00,,,0.02,WeatherCatV1.22B15,2013-12-07 14:02:00,
2013-12-07 09:03:00,34.7,34.7,30.23,NNE,28,0.0,1.0,100,0.00,,,0.02,WeatherCatV1.22B15,2013-12-07 14:03:00,
2013-12-07 09:04:00,34.8,34.8,30.23,NNE,27,1.0,2.0,100,0.00,,,0.02,WeatherCatV1.22B15,2013-12-07 14:04:00,
2013-12-07 09:05:00,34.8,34.8,30.23,NNE,28,0.0,2.0,100,0.00,,,0.02,WeatherCatV1.22B15,2013-12-07 14:05:00,
2013-12-07 09:07:00,34.9,34.9,30.24,NNE,28,0.0,3.0,100,0.00,,,0.02,WeatherCatV1.22B15,2013-12-07 14:07:00,
2013-12-07 09:08:00,35.0,35.0,30.24,NNE,28,0.0,1.0,100,0.00,,,0.02,WeatherCatV1.22B15,2013-12-07 14:08:00,
2013-12-07 09:09:00,35.0,35.0,30.23,NNE,28,0.0,1.0,100,0.00,,,0.02,WeatherCatV1.22B15,2013-12-07 14:09:00,
2013-12-07 09:11:00,35.3,35.3,30.22,NNE,28,0.0,2.0,100,0.00,,,0.02,WeatherCatV1.22B15,2013-12-07 14:11:00,
2013-12-07 09:12:00,35.5,35.5,30.23,NNE,28,0.0,1.0,100,0.04,,,0.03,WeatherCatV1.22B15,2013-12-07 14:12:00,
2013-12-07 09:14:00,35.6,35.6,30.24,NNE,28,0.0,2.0,100,0.01,,,0.03,WeatherCatV1.22B15,2013-12-07 14:14:00,
2013-12-07 09:16:00,35.9,35.9,30.24,NNE,28,0.0,2.0,100,0.00,,,0.03,WeatherCatV1.22B15,2013-12-07 14:16:00,
2013-12-07 09:17:00,35.7,35.7,30.24,NNE,28,0.0,1.0,100,0.00,,,0.03,WeatherCatV1.22B15,2013-12-07 14:17:00,
2013-12-07 09:18:00,35.7,35.7,30.24,NNE,28,0.0,1.0,100,0.00,,,0.03,WeatherCatV1.22B15,2013-12-07 14:18:00,
2013-12-07 09:19:00,35.6,35.6,30.24,NNE,28,0.0,2.0,100,0.00,,,0.03,WeatherCatV1.22B15,2013-12-07 14:19:00,
2013-12-07 09:20:00,35.5,35.5,30.23,NNE,28,0.0,3.0,100,0.00,,,0.03,WeatherCatV1.22B15,2013-12-07 14:20:00,
2013-12-07 09:22:00,35.2,35.2,30.24,NNE,28,0.0,1.0,100,0.03,,,0.04,WeatherCatV1.22B15,2013-12-07 14:22:00,
2013-12-07 09:23:00,35.0,35.0,30.23,NNE,28,0.0,2.0,100,0.00,,,0.04,WeatherCatV1.22B15,2013-12-07 14:23:00,
2013-12-07 09:24:00,35.0,35.0,30.23,NNE,27,0.0,2.0,100,0.00,,,0.04,WeatherCatV1.22B15,2013-12-07 14:24:00,
2013-12-07 09:25:00,35.1,35.1,30.23,NNE,28,0.0,0.0,100,0.00,,,0.04,WeatherCatV1.22B15,2013-12-07 14:25:00,
2013-12-07 09:27:00,34.9,34.9,30.23,NNE,28,1.0,2.0,100,0.00,,,0.04,WeatherCatV1.22B15,2013-12-07 14:27:00,
2013-12-07 09:28:00,34.8,34.8,30.24,NNE,27,1.0,2.0,100,0.08,,,0.05,WeatherCatV1.22B15,2013-12-07 14:28:00,
2013-12-07 09:29:00,34.8,34.8,30.24,NNE,28,2.0,3.0,100,0.06,,,0.05,WeatherCatV1.22B15,2013-12-07 14:29:00,
2013-12-07 09:30:00,34.7,34.7,30.23,NNE,27,0.0,3.0,100,0.02,,,0.05,WeatherCatV1.22B15,2013-12-07 14:30:00,
2013-12-07 09:33:00,34.6,34.6,30.24,NNE,27,3.0,3.0,100,0.00,,,0.05,WeatherCatV1.22B15,2013-12-07 14:33:00,
2013-12-07 09:35:00,34.6,34.6,30.24,NNE,27,0.0,3.0,100,0.00,,,0.05,WeatherCatV1.22B15,2013-12-07 14:35:00,
2013-12-07 09:36:00,34.6,34.6,30.24,NNE,27,0.0,3.0,100,0.00,,,0.05,WeatherCatV1.22B15,2013-12-07 14:36:00,
2013-12-07 09:38:00,34.8,34.8,30.24,NNE,27,0.0,2.0,100,0.00,,,0.05,WeatherCatV1.22B15,2013-12-07 14:38:00,
2013-12-07 09:40:00,34.7,34.7,30.25,WNW,289,4.0,5.0,100,0.05,,,0.06,WeatherCatV1.22B15,2013-12-07 14:40:00,
2013-12-07 09:41:00,34.8,34.5,30.24,WNW,286,2.0,5.0,99,0.04,,,0.06,WeatherCatV1.22B15,2013-12-07 14:41:00,
2013-12-07 09:42:00,34.7,34.5,30.24,WNW,286,2.0,4.0,99,0.00,,,0.06,WeatherCatV1.22B15,2013-12-07 14:42:00,
2013-12-07 09:45:00,34.8,34.3,30.23,West,279,1.0,6.0,98,0.00,,,0.06,WeatherCatV1.22B15,2013-12-07 14:45:00,
2013-12-07 09:46:00,34.7,34.2,30.24,West,279,3.0,4.0,98,0.00,,,0.06,WeatherCatV1.22B15,2013-12-07 14:46:00,
2013-12-07 09:47:00,34.7,33.9,30.24,West,279,0.0,4.0,97,0.00,,,0.06,WeatherCatV1.22B15,2013-12-07 14:47:00,
2013-12-07 09:48:00,34.9,34.4,30.24,NNW,339,4.0,6.0,98,0.00,,,0.06,WeatherCatV1.22B15,2013-12-07 14:48:00,
2013-12-07 09:49:00,34.9,34.1,30.24,WNW,282,5.0,7.0,97,0.00,,,0.06,WeatherCatV1.22B15,2013-12-07 14:49:00,
2013-12-07 09:50:00,34.9,33.9,30.24,West,280,3.0,7.0,96,0.06,,,0.07,WeatherCatV1.22B15,2013-12-07 14:50:00,
2013-12-07 09:51:00,34.9,33.6,30.24,West,280,1.0,4.0,95,0.06,,,0.07,WeatherCatV1.22B15,2013-12-07 14:51:00,
2013-12-07 09:52:00,35.1,34.1,30.24,WNW,290,4.0,4.0,96,0.00,,,0.07,WeatherCatV1.22B15,2013-12-07 14:52:00,
2013-12-07 09:53:00,35.0,33.7,30.25,NE,49,3.0,5.0,95,0.00,,,0.07,WeatherCatV1.22B15,2013-12-07 14:53:00,
2013-12-07 09:55:00,35.2,34.2,30.24,ENE,72,1.0,3.0,96,0.00,,,0.07,WeatherCatV1.22B15,2013-12-07 14:55:00,
2013-12-07 09:56:00,35.2,33.9,30.25,ENE,72,2.0,4.0,95,0.00,,,0.07,WeatherCatV1.22B15,2013-12-07 14:56:00,
2013-12-07 09:57:00,35.3,34.0,30.24,ENE,72,3.0,4.0,95,0.00,,,0.07,WeatherCatV1.22B15,2013-12-07 14:57:00,
2013-12-07 09:58:00,35.3,34.0,30.25,WNW,294,4.0,7.0,95,0.00,,,0.07,WeatherCatV1.22B15,2013-12-07 14:58:00,
2013-12-07 10:02:00,35.3,33.8,30.25,WNW,292,1.0,3.0,94,0.05,,,0.08,WeatherCatV1.22B15,2013-12-07 15:02:00,
2013-12-07 10:03:00,35.3,33.5,30.25,WNW,292,1.0,2.0,93,0.01,,,0.08,WeatherCatV1.22B15,2013-12-07 15:03:00,
2013-12-07 10:07:00,35.2,33.1,30.25,West,259,3.0,8.0,92,0.00,,,0.08,WeatherCatV1.22B15,2013-12-07 15:07:00,
2013-12-07 10:08:00,35.2,32.8,30.25,West,261,3.0,7.0,91,0.00,,,0.08,WeatherCatV1.22B15,2013-12-07 15:08:00,
2013-12-07 10:09:00,35.2,33.1,30.25,West,262,3.0,5.0,92,0.00,,,0.08,WeatherCatV1.22B15,2013-12-07 15:09:00,
2013-12-07 10:14:00,35.3,32.9,30.24,West,262,3.0,4.0,91,0.03,,,0.09,WeatherCatV1.22B15,2013-12-07 15:14:00,
2013-12-07 10:15:00,35.3,32.9,30.25,West,262,1.0,4.0,91,0.00,,,0.09,WeatherCatV1.22B15,2013-12-07 15:15:00,
2013-12-07 10:16:00,35.5,33.1,30.25,West,262,1.0,3.0,91,0.00,,,0.09,WeatherCatV1.22B15,2013-12-07 15:16:00,
2013-12-07 10:19:00,35.6,33.0,30.25,West,262,2.0,3.0,90,0.00,,,0.09,WeatherCatV1.22B15,2013-12-07 15:19:00,
2013-12-07 10:20:00,35.6,33.2,30.25,West,262,1.0,3.0,91,0.00,,,0.09,WeatherCatV1.22B15,2013-12-07 15:20:00,
2013-12-07 10:21:00,35.8,33.4,30.24,West,262,2.0,3.0,91,0.00,,,0.09,WeatherCatV1.22B15,2013-12-07 15:21:00,
2013-12-07 10:23:00,35.9,33.5,30.25,West,262,1.0,2.0,91,0.00,,,0.09,WeatherCatV1.22B15,2013-12-07 15:23:00,
2013-12-07 10:24:00,36.0,33.6,30.25,West,262,2.0,3.0,91,0.00,,,0.09,WeatherCatV1.22B15,2013-12-07 15:24:00,
2013-12-07 10:26:00,36.1,33.5,30.25,West,261,2.0,6.0,90,0.00,,,0.09,WeatherCatV1.22B15,2013-12-07 15:26:00,
2013-12-07 10:28:00,36.2,33.3,30.25,NW,316,1.0,5.0,89,0.03,,,0.10,WeatherCatV1.22B15,2013-12-07 15:28:00,
2013-12-07 10:29:00,36.2,33.0,30.25,NW,316,1.0,5.0,88,0.00,,,0.10,WeatherCatV1.22B15,2013-12-07 15:29:00,
2013-12-07 10:30:00,36.0,32.8,30.25,NW,316,3.0,5.0,88,0.00,,,0.10,WeatherCatV1.22B15,2013-12-07 15:30:00,
2013-12-07 10:31:00,36.1,32.6,30.25,NW,316,1.0,5.0,87,0.00,,,0.10,WeatherCatV1.22B15,2013-12-07 15:31:00,
2013-12-07 10:34:00,36.0,32.5,30.25,WNW,285,3.0,6.0,87,0.00,,,0.10,WeatherCatV1.22B15,2013-12-07 15:34:00,
2013-12-07 10:35:00,36.0,32.5,30.25,WNW,285,1.0,5.0,87,0.00,,,0.10,WeatherCatV1.22B15,2013-12-07 15:35:00,
2013-12-07 10:36:00,36.0,32.5,30.25,WNW,285,3.0,5.0,87,0.00,,,0.10,WeatherCatV1.22B15,2013-12-07 15:36:00,
2013-12-07 10:37:00,36.1,32.6,30.25,WNW,284,1.0,5.0,87,0.00,,,0.10,WeatherCatV1.22B15,2013-12-07 15:37:00,
2013-12-07 10:39:00,36.2,32.7,30.24,WNW,282,3.0,6.0,87,0.00,,,0.10,WeatherCatV1.22B15,2013-12-07 15:39:00,
2013-12-07 10:41:00,36.2,32.7,30.24,WNW,285,3.0,6.0,87,0.00,,,0.10,WeatherCatV1.22B15,2013-12-07 15:41:00,
2013-12-07 10:42:00,36.2,32.7,30.25,WNW,291,4.0,8.0,87,0.04,,,0.11,WeatherCatV1.22B15,2013-12-07 15:42:00,
2013-12-07 10:43:00,36.2,31.8,30.25,NW,322,8.0,9.0,84,0.01,,,0.11,WeatherCatV1.22B15,2013-12-07 15:43:00,
2013-12-07 10:44:00,36.0,31.9,30.24,NNW,345,4.0,9.0,85,0.00,,,0.11,WeatherCatV1.22B15,2013-12-07 15:44:00,
2013-12-07 10:45:00,36.0,31.6,30.24,NNW,347,5.0,9.0,84,0.00,,,0.11,WeatherCatV1.22B15,2013-12-07 15:45:00,
2013-12-07 10:48:00,36.0,31.6,30.25,West,269,6.0,6.0,84,0.00,,,0.11,WeatherCatV1.22B15,2013-12-07 15:48:00,
2013-12-07 10:50:00,36.0,31.6,30.24,NW,310,3.0,11.0,84,0.00,,,0.11,WeatherCatV1.22B15,2013-12-07 15:50:00,
2013-12-07 10:51:00,36.0,31.4,30.25,NW,321,5.0,6.0,83,0.00,,,0.11,WeatherCatV1.22B15,2013-12-07 15:51:00,
2013-12-07 10:54:00,36.0,31.0,30.25,NW,306,1.0,4.0,82,0.00,,,0.11,WeatherCatV1.22B15,2013-12-07 15:54:00,
2013-12-07 10:55:00,36.0,31.4,30.25,NW,306,1.0,3.0,83,0.00,,,0.11,WeatherCatV1.22B15,2013-12-07 15:55:00,
2013-12-07 10:56:00,36.0,31.4,30.24,WNW,298,6.0,8.0,83,0.00,,,0.11,WeatherCatV1.22B15,2013-12-07 15:56:00,
2013-12-07 10:57:00,36.1,31.5,30.25,WNW,298,3.0,8.0,83,0.00,,,0.11,WeatherCatV1.22B15,2013-12-07 15:57:00,
2013-12-07 10:58:00,36.0,31.0,30.24,WNW,298,2.0,5.0,82,0.04,,,0.12,WeatherCatV1.22B15,2013-12-07 15:58:00,
2013-12-07 10:59:00,36.0,31.0,30.24,WNW,298,6.0,6.0,82,0.00,,,0.12,WeatherCatV1.22B15,2013-12-07 15:59:00,
2013-12-07 11:01:00,36.2,31.2,30.25,West,267,6.0,9.0,82,0.00,,,0.12,WeatherCatV1.22B15,2013-12-07 16:01:00,
2013-12-07 11:02:00,36.2,30.9,30.25,NW,316,5.0,6.0,81,0.00,,,0.12,WeatherCatV1.22B15,2013-12-07 16:02:00,
2013-12-07 11:04:00,36.1,30.8,30.24,NNW,331,6.0,8.0,81,0.00,,,0.12,WeatherCatV1.22B15,2013-12-07 16:04:00,
2013-12-07 11:05:00,36.2,30.9,30.25,NNW,330,3.0,8.0,81,0.00,,,0.12,WeatherCatV1.22B15,2013-12-07 16:05:00,
2013-12-07 11:06:00,36.2,30.9,30.24,NW,310,5.0,6.0,81,0.00,,,0.12,WeatherCatV1.22B15,2013-12-07 16:06:00,
2013-12-07 11:07:00,36.2,31.2,30.25,WNW,289,4.0,10.0,82,0.00,,,0.12,WeatherCatV1.22B15,2013-12-07 16:07:00,
2013-12-07 11:10:00,36.2,30.9,30.25,West,276,4.0,8.0,81,0.00,,,0.12,WeatherCatV1.22B15,2013-12-07 16:10:00,
2013-12-07 11:11:00,36.3,30.7,30.24,NNW,330,5.0,11.0,80,0.00,,,0.12,WeatherCatV1.22B15,2013-12-07 16:11:00,
2013-12-07 11:13:00,36.3,30.7,30.25,WNW,288,3.0,6.0,80,0.00,,,0.12,WeatherCatV1.22B15,2013-12-07 16:13:00,
2013-12-07 11:14:00,36.3,30.4,30.24,WNW,298,6.0,6.0,79,0.00,,,0.12,WeatherCatV1.22B15,2013-12-07 16:14:00,
2013-12-07 11:15:00,36.4,30.8,30.25,WNW,292,4.0,6.0,80,0.00,,,0.12,WeatherCatV1.22B15,2013-12-07 16:15:00,
2013-12-07 11:17:00,36.5,31.2,30.25,WNW,288,5.0,7.0,81,0.00,,,0.12,WeatherCatV1.22B15,2013-12-07 16:17:00,
2013-12-07 11:20:00,36.5,30.6,30.25,West,268,4.0,6.0,79,0.03,,,0.13,WeatherCatV1.22B15,2013-12-07 16:20:00,
2013-12-07 11:21:00,36.6,31.0,30.24,West,269,4.0,6.0,80,0.00,,,0.13,WeatherCatV1.22B15,2013-12-07 16:21:00,
2013-12-07 11:22:00,36.6,30.7,30.24,NNW,329,2.0,9.0,79,0.00,,,0.13,WeatherCatV1.22B15,2013-12-07 16:22:00,
2013-12-07 11:25:00,36.7,30.8,30.25,NNW,332,3.0,9.0,79,0.00,,,0.13,WeatherCatV1.22B15,2013-12-07 16:25:00,
2013-12-07 11:27:00,36.9,30.4,30.25,NW,308,7.0,9.0,77,0.00,,,0.13,WeatherCatV1.22B15,2013-12-07 16:27:00,
2013-12-07 11:29:00,36.7,29.2,30.24,WNW,295,7.0,12.0,74,0.00,,,0.13,WeatherCatV1.22B15,2013-12-07 16:29:00,
2013-12-07 11:30:00,36.7,29.2,30.24,WNW,282,5.0,12.0,74,0.00,,,0.13,WeatherCatV1.22B15,2013-12-07 16:30:00,
2013-12-07 11:32:00,36.6,29.4,30.24,WNW,292,3.0,7.0,75,0.00,,,0.13,WeatherCatV1.22B15,2013-12-07 16:32:00,
2013-12-07 11:33:00,36.6,29.4,30.24,SW,231,3.0,8.0,75,0.00,,,0.13,WeatherCatV1.22B15,2013-12-07 16:33:00,
2013-12-07 11:35:00,36.8,29.6,30.24,West,278,6.0,6.0,75,0.00,,,0.13,WeatherCatV1.22B15,2013-12-07 16:35:00,
2013-12-07 11:36:00,36.7,29.5,30.24,West,276,5.0,9.0,75,0.00,,,0.13,WeatherCatV1.22B15,2013-12-07 16:36:00,
2013-12-07 11:39:00,36.9,30.0,30.25,NW,323,1.0,5.0,76,0.00,,,0.13,WeatherCatV1.22B15,2013-12-07 16:39:00,
2013-12-07 11:40:00,36.9,30.4,30.24,NW,323,3.0,3.0,77,0.00,,,0.13,WeatherCatV1.22B15,2013-12-07 16:40:00,
2013-12-07 11:41:00,37.0,30.5,30.25,NW,322,3.0,4.0,77,0.00,,,0.13,WeatherCatV1.22B15,2013-12-07 16:41:00,
2013-12-07 11:42:00,37.0,30.1,30.24,NNW,334,4.0,5.0,76,0.00,,,0.13,WeatherCatV1.22B15,2013-12-07 16:42:00,
2013-12-07 11:43:00,37.1,29.9,30.24,NNW,332,4.0,10.0,75,0.00,,,0.13,WeatherCatV1.22B15,2013-12-07 16:43:00,
2013-12-07 11:44:00,36.9,29.4,30.24,North,350,5.0,7.0,74,0.00,,,0.13,WeatherCatV1.22B15,2013-12-07 16:44:00,
2013-12-07 11:45:00,36.9,29.4,30.24,NNW,339,3.0,7.0,74,0.00,,,0.13,WeatherCatV1.22B15,2013-12-07 16:45:00,
2013-12-07 11:46:00,36.9,29.7,30.24,NNW,330,5.0,5.0,75,0.00,,,0.13,WeatherCatV1.22B15,2013-12-07 16:46:00,
2013-12-07 11:47:00,36.7,28.9,30.25,NW,323,7.0,8.0,73,0.00,,,0.13,WeatherCatV1.22B15,2013-12-07 16:47:00,
2013-12-07 11:49:00,36.5,28.7,30.24,WSW,253,4.0,6.0,73,0.00,,,0.14,WeatherCatV1.22B15,2013-12-07 16:49:00,
2013-12-07 11:50:00,36.4,28.6,30.24,West,270,6.0,13.0,73,0.00,,,0.14,WeatherCatV1.22B15,2013-12-07 16:50:00,
2013-12-07 11:51:00,36.3,28.1,30.24,WNW,295,5.0,13.0,72,0.00,,,0.14,WeatherCatV1.22B15,2013-12-07 16:51:00,
2013-12-07 11:53:00,36.1,28.3,30.24,WNW,294,0.0,4.0,73,0.00,,,0.14,WeatherCatV1.22B15,2013-12-07 16:53:00,
2013-12-07 11:54:00,36.1,28.6,30.24,WNW,294,2.0,3.0,74,0.00,,,0.14,WeatherCatV1.22B15,2013-12-07 16:54:00,
2013-12-07 11:55:00,35.9,28.4,30.23,WNW,294,1.0,4.0,74,0.00,,,0.14,WeatherCatV1.22B15,2013-12-07 16:55:00,
2013-12-07 11:57:00,35.9,28.8,30.24,WNW,294,1.0,4.0,75,0.00,,,0.14,WeatherCatV1.22B15,2013-12-07 16:57:00,
2013-12-07 11:58:00,35.9,28.8,30.24,WNW,294,2.0,3.0,75,0.00,,,0.14,WeatherCatV1.22B15,2013-12-07 16:58:00,
2013-12-07 12:00:00,35.7,27.9,30.25,NNE,23,1.0,10.0,73,0.00,,,0.14,WeatherCatV1.22B15,2013-12-07 17:00:00,
2013-12-07 12:01:00,35.6,28.1,30.25,WNW,296,3.0,6.0,74,0.00,,,0.14,WeatherCatV1.22B15,2013-12-07 17:01:00,
2013-12-07 12:02:00,35.6,28.1,30.24,NW,319,8.0,8.0,74,0.00,,,0.14,WeatherCatV1.22B15,2013-12-07 17:02:00,
2013-12-07 12:03:00,35.6,27.8,30.24,North,356,5.0,8.0,73,0.00,,,0.14,WeatherCatV1.22B15,2013-12-07 17:03:00,
2013-12-07 12:06:00,35.8,28.0,30.24,WNW,298,4.0,9.0,73,0.00,,,0.14,WeatherCatV1.22B15,2013-12-07 17:06:00,
2013-12-07 12:07:00,35.9,28.1,30.24,NNW,331,5.0,6.0,73,0.00,,,0.14,WeatherCatV1.22B15,2013-12-07 17:07:00,
2013-12-07 12:09:00,36.0,28.2,30.24,West,265,4.0,11.0,73,0.00,,,0.14,WeatherCatV1.22B15,2013-12-07 17:09:00,
2013-12-07 12:10:00,36.2,27.7,30.24,SW,235,2.0,6.0,71,0.00,,,0.14,WeatherCatV1.22B15,2013-12-07 17:10:00,
2013-12-07 12:11:00,36.2,27.7,30.24,SW,234,2.0,5.0,71,0.00,,,0.14,WeatherCatV1.22B15,2013-12-07 17:11:00,
2013-12-07 12:12:00,36.3,28.1,30.25,NNW,330,4.0,8.0,72,0.00,,,0.14,WeatherCatV1.22B15,2013-12-07 17:12:00,
2013-12-07 12:15:00,36.4,27.9,30.24,WNW,297,4.0,7.0,71,0.00,,,0.14,WeatherCatV1.22B15,2013-12-07 17:15:00,
2013-12-07 12:16:00,36.4,27.9,30.24,NNW,337,4.0,5.0,71,0.00,,,0.14,WeatherCatV1.22B15,2013-12-07 17:16:00,
2013-12-07 12:17:00,36.6,28.1,30.24,West,271,3.0,6.0,71,0.00,,,0.14,WeatherCatV1.22B15,2013-12-07 17:17:00,
2013-12-07 12:19:00,36.6,27.8,30.24,NNW,327,6.0,8.0,70,0.00,,,0.14,WeatherCatV1.22B15,2013-12-07 17:19:00,
2013-12-07 12:21:00,36.7,28.2,30.24,West,276,4.0,7.0,71,0.00,,,0.14,WeatherCatV1.22B15,2013-12-07 17:21:00,
2013-12-07 12:22:00,36.8,28.0,30.24,West,276,5.0,7.0,70,0.00,,,0.14,WeatherCatV1.22B15,2013-12-07 17:22:00,
2013-12-07 12:24:00,36.7,27.9,30.24,West,272,6.0,7.0,70,0.00,,,0.14,WeatherCatV1.22B15,2013-12-07 17:24:00,
2013-12-07 12:26:00,36.9,28.4,30.25,NW,308,4.0,8.0,71,0.00,,,0.14,WeatherCatV1.22B15,2013-12-07 17:26:00,
2013-12-07 12:27:00,36.9,28.0,30.24,WNW,301,2.0,8.0,70,0.00,,,0.14,WeatherCatV1.22B15,2013-12-07 17:27:00,
2013-12-07 12:28:00,36.9,28.4,30.25,WNW,292,6.0,8.0,71,0.00,,,0.14,WeatherCatV1.22B15,2013-12-07 17:28:00,
2013-12-07 12:29:00,37.1,28.2,30.24,West,270,5.0,8.0,70,0.00,,,0.14,WeatherCatV1.22B15,2013-12-07 17:29:00,
2013-12-07 12:30:00,37.0,27.8,30.24,West,280,4.0,8.0,69,0.00,,,0.14,WeatherCatV1.22B15,2013-12-07 17:30:00,
2013-12-07 12:31:00,37.0,27.8,30.24,WNW,296,2.0,6.0,69,0.00,,,0.14,WeatherCatV1.22B15,2013-12-07 17:31:00,
2013-12-07 12:33:00,37.2,28.3,30.24,WNW,290,3.0,5.0,70,0.00,,,0.14,WeatherCatV1.22B15,2013-12-07 17:33:00,
2013-12-07 12:34:00,37.2,28.7,30.24,WNW,286,6.0,7.0,71,0.00,,,0.14,WeatherCatV1.22B15,2013-12-07 17:34:00,
2013-12-07 12:36:00,37.3,28.4,30.24,West,281,3.0,8.0,70,0.00,,,0.14,WeatherCatV1.22B15,2013-12-07 17:36:00,
2013-12-07 12:38:00,37.5,28.6,30.24,WNW,297,2.0,7.0,70,0.00,,,0.14,WeatherCatV1.22B15,2013-12-07 17:38:00,
2013-12-07 12:39:00,37.5,28.6,30.24,WNW,294,5.0,5.0,70,0.00,,,0.14,WeatherCatV1.22B15,2013-12-07 17:39:00,
2013-12-07 12:40:00,37.6,29.1,30.24,WNW,294,2.0,6.0,71,0.00,,,0.14,WeatherCatV1.22B15,2013-12-07 17:40:00,
2013-12-07 12:42:00,37.8,28.9,30.24,NW,310,3.0,7.0,70,0.00,,,0.14,WeatherCatV1.22B15,2013-12-07 17:42:00,
2013-12-07 12:44:00,37.9,29.0,30.24,NW,323,2.0,8.0,70,0.00,,,0.14,WeatherCatV1.22B15,2013-12-07 17:44:00,
2013-12-07 12:45:00,38.0,29.1,30.24,NNE,33,6.0,7.0,70,0.01,,,0.15,WeatherCatV1.22B15,2013-12-07 17:45:00,
2013-12-07 12:46:00,38.1,29.5,30.24,NNE,29,6.0,7.0,71,0.01,,,0.15,WeatherCatV1.22B15,2013-12-07 17:46:00,
2013-12-07 12:49:00,38.0,28.0,30.25,NNW,332,8.0,16.0,67,0.00,,,0.15,WeatherCatV1.22B15,2013-12-07 17:49:00,
2013-12-07 12:50:00,37.9,28.6,30.25,North,359,5.0,11.0,69,0.00,,,0.15,WeatherCatV1.22B15,2013-12-07 17:50:00,
2013-12-07 12:51:00,37.7,28.8,30.25,North,0,2.0,5.0,70,0.00,,,0.15,WeatherCatV1.22B15,2013-12-07 17:51:00,
2013-12-07 12:53:00,37.6,29.1,30.25,North,1,2.0,6.0,71,0.00,,,0.15,WeatherCatV1.22B15,2013-12-07 17:53:00,
2013-12-07 12:56:00,37.5,28.3,30.25,North,350,7.0,12.0,69,0.00,,,0.15,WeatherCatV1.22B15,2013-12-07 17:56:00,
2013-12-07 12:57:00,37.3,27.7,30.25,NNE,18,6.0,16.0,68,0.00,,,0.15,WeatherCatV1.22B15,2013-12-07 17:57:00,
2013-12-07 12:58:00,37.2,26.5,30.25,NNW,327,5.0,16.0,65,0.00,,,0.15,WeatherCatV1.22B15,2013-12-07 17:58:00,
2013-12-07 12:59:00,37.2,26.5,30.24,NW,322,4.0,16.0,65,0.00,,,0.15,WeatherCatV1.22B15,2013-12-07 17:59:00,
2013-12-07 13:01:00,36.9,26.2,30.25,NNW,338,2.0,11.0,65,0.00,,,0.15,WeatherCatV1.22B15,2013-12-07 18:01:00,
2013-12-07 13:03:00,36.7,26.8,30.25,NNW,332,2.0,4.0,67,0.00,,,0.15,WeatherCatV1.22B15,2013-12-07 18:03:00,
2013-12-07 13:04:00,36.8,26.9,30.25,NNW,332,1.0,4.0,67,0.00,,,0.15,WeatherCatV1.22B15,2013-12-07 18:04:00,
2013-12-07 13:05:00,36.8,27.2,30.24,NNW,332,2.0,4.0,68,0.00,,,0.15,WeatherCatV1.22B15,2013-12-07 18:05:00,
2013-12-07 13:07:00,36.8,26.5,30.25,WSW,257,5.0,9.0,66,0.00,,,0.15,WeatherCatV1.22B15,2013-12-07 18:07:00,
2013-12-07 13:09:00,36.6,26.7,30.24,SW,236,1.0,3.0,67,0.00,,,0.15,WeatherCatV1.22B15,2013-12-07 18:09:00,
2013-12-07 13:10:00,36.6,26.7,30.25,West,271,4.0,5.0,67,0.00,,,0.15,WeatherCatV1.22B15,2013-12-07 18:10:00,
2013-12-07 13:11:00,36.6,26.7,30.25,WNW,295,2.0,5.0,67,0.00,,,0.15,WeatherCatV1.22B15,2013-12-07 18:11:00,
2013-12-07 13:12:00,36.8,26.9,30.24,West,273,6.0,10.0,67,0.00,,,0.15,WeatherCatV1.22B15,2013-12-07 18:12:00,
2013-12-07 13:13:00,36.8,26.5,30.25,NNW,336,3.0,10.0,66,0.00,,,0.15,WeatherCatV1.22B15,2013-12-07 18:13:00,
2013-12-07 13:15:00,36.7,26.4,30.24,WNW,292,5.0,7.0,66,0.00,,,0.15,WeatherCatV1.22B15,2013-12-07 18:15:00,
2013-12-07 13:16:00,36.7,26.4,30.25,NW,312,6.0,7.0,66,0.00,,,0.15,WeatherCatV1.22B15,2013-12-07 18:16:00,
2013-12-07 13:17:00,36.7,26.1,30.24,West,274,5.0,7.0,65,0.00,,,0.15,WeatherCatV1.22B15,2013-12-07 18:17:00,
2013-12-07 13:18:00,36.9,27.0,30.25,West,274,2.0,4.0,67,0.00,,,0.15,WeatherCatV1.22B15,2013-12-07 18:18:00,
2013-12-07 13:19:00,36.9,26.2,30.24,West,274,2.0,3.0,65,0.00,,,0.15,WeatherCatV1.22B15,2013-12-07 18:19:00,
2013-12-07 13:20:00,37.1,26.8,30.25,West,274,1.0,3.0,66,0.00,,,0.15,WeatherCatV1.22B15,2013-12-07 18:20:00,
2013-12-07 13:22:00,37.0,26.0,30.24,WSW,249,4.0,8.0,64,0.00,,,0.15,WeatherCatV1.22B15,2013-12-07 18:22:00,
2013-12-07 13:23:00,37.1,26.4,30.25,WSW,257,4.0,6.0,65,0.00,,,0.15,WeatherCatV1.22B15,2013-12-07 18:23:00,
2013-12-07 13:24:00,37.0,26.4,30.25,West,267,3.0,7.0,65,0.00,,,0.15,WeatherCatV1.22B15,2013-12-07 18:24:00,
2013-12-07 13:25:00,37.1,26.1,30.25,West,269,3.0,7.0,64,0.00,,,0.15,WeatherCatV1.22B15,2013-12-07 18:25:00,
2013-12-07 13:27:00,37.1,26.4,30.25,West,269,4.0,5.0,65,0.00,,,0.15,WeatherCatV1.22B15,2013-12-07 18:27:00,
2013-12-07 13:28:00,37.0,26.7,30.25,West,279,3.0,5.0,66,0.00,,,0.15,WeatherCatV1.22B15,2013-12-07 18:28:00,
2013-12-07 13:30:00,37.1,26.8,30.25,West,269,2.0,9.0,66,0.00,,,0.15,WeatherCatV1.22B15,2013-12-07 18:30:00,
2013-12-07 13:31:00,37.0,26.4,30.25,West,278,3.0,6.0,65,0.00,,,0.15,WeatherCatV1.22B15,2013-12-07 18:31:00,
2013-12-07 13:33:00,36.9,25.9,30.25,WNW,285,6.0,8.0,64,0.01,,,0.16,WeatherCatV1.22B15,2013-12-07 18:33:00,
2013-12-07 13:35:00,36.7,26.1,30.24,NW,313,4.0,8.0,65,0.00,,,0.16,WeatherCatV1.22B15,2013-12-07 18:35:00,
2013-12-07 13:37:00,36.6,25.6,30.25,WNW,287,2.0,8.0,64,0.00,,,0.16,WeatherCatV1.22B15,2013-12-07 18:37:00,
2013-12-07 13:38:00,36.6,25.6,30.25,WNW,288,2.0,6.0,64,0.00,,,0.16,WeatherCatV1.22B15,2013-12-07 18:38:00,
2013-12-07 13:39:00,36.6,25.6,30.25,WNW,288,1.0,6.0,64,0.00,,,0.16,WeatherCatV1.22B15,2013-12-07 18:39:00,
2013-12-07 13:41:00,36.6,26.0,30.24,WNW,283,4.0,7.0,65,0.00,,,0.16,WeatherCatV1.22B15,2013-12-07 18:41:00,
2013-12-07 13:42:00,36.6,26.0,30.24,WNW,283,5.0,5.0,65,0.00,,,0.16,WeatherCatV1.22B15,2013-12-07 18:42:00,
2013-12-07 13:43:00,36.5,25.1,30.24,NNW,336,3.0,9.0,63,0.00,,,0.16,WeatherCatV1.22B15,2013-12-07 18:43:00,
2013-12-07 13:44:00,36.5,25.1,30.25,NNW,333,4.0,9.0,63,0.00,,,0.16,WeatherCatV1.22B15,2013-12-07 18:44:00,
2013-12-07 13:46:00,36.5,25.5,30.25,WNW,293,4.0,10.0,64,0.00,,,0.16,WeatherCatV1.22B15,2013-12-07 18:46:00,
2013-12-07 13:47:00,36.4,25.4,30.25,West,273,6.0,10.0,64,0.00,,,0.16,WeatherCatV1.22B15,2013-12-07 18:47:00,
2013-12-07 13:49:00,36.5,24.7,30.25,NW,314,4.0,7.0,62,0.00,,,0.16,WeatherCatV1.22B15,2013-12-07 18:49:00,
2013-12-07 13:51:00,36.6,25.2,30.24,NW,315,7.0,9.0,63,0.00,,,0.16,WeatherCatV1.22B15,2013-12-07 18:51:00,
2013-12-07 13:52:00,36.6,24.8,30.25,WNW,283,11.0,13.0,62,0.00,,,0.16,WeatherCatV1.22B15,2013-12-07 18:52:00,
2013-12-07 13:54:00,36.5,24.7,30.25,West,274,2.0,7.0,62,0.00,,,0.16,WeatherCatV1.22B15,2013-12-07 18:54:00,
2013-12-07 13:56:00,36.6,24.8,30.25,WNW,290,3.0,8.0,62,0.00,,,0.16,WeatherCatV1.22B15,2013-12-07 18:56:00,
2013-12-07 13:58:00,36.6,24.4,30.24,NW,318,4.0,11.0,61,0.00,,,0.16,WeatherCatV1.22B15,2013-12-07 18:58:00,
2013-12-07 13:59:00,36.4,25.0,30.24,NNW,335,3.0,7.0,63,0.00,,,0.16,WeatherCatV1.22B15,2013-12-07 18:59:00,
2013-12-07 14:01:00,36.5,25.1,30.25,NNE,17,3.0,8.0,63,0.00,,,0.16,WeatherCatV1.22B15,2013-12-07 19:01:00,
2013-12-07 14:02:00,36.5,25.1,30.25,West,273,9.0,13.0,63,0.00,,,0.16,WeatherCatV1.22B15,2013-12-07 19:02:00,
2013-12-07 14:03:00,36.4,24.6,30.25,North,353,6.0,13.0,62,0.00,,,0.16,WeatherCatV1.22B15,2013-12-07 19:03:00,
2013-12-07 14:04:00,36.4,24.6,30.25,NNW,330,1.0,13.0,62,0.00,,,0.16,WeatherCatV1.22B15,2013-12-07 19:04:00,
2013-12-07 14:05:00,36.3,24.5,30.25,West,277,2.0,8.0,62,0.00,,,0.16,WeatherCatV1.22B15,2013-12-07 19:05:00,
2013-12-07 14:06:00,36.3,24.2,30.25,NNE,20,7.0,9.0,61,0.00,,,0.16,WeatherCatV1.22B15,2013-12-07 19:06:00,
2013-12-07 14:09:00,36.0,24.3,30.25,NNW,346,4.0,7.0,62,0.00,,,0.16,WeatherCatV1.22B15,2013-12-07 19:09:00,
2013-12-07 14:10:00,36.0,23.9,30.26,NNW,335,3.0,7.0,61,0.00,,,0.16,WeatherCatV1.22B15,2013-12-07 19:10:00,
2013-12-07 14:11:00,35.9,23.8,30.25,SSW,203,3.0,6.0,61,0.00,,,0.16,WeatherCatV1.22B15,2013-12-07 19:11:00,
2013-12-07 14:13:00,35.8,24.1,30.26,WNW,295,5.0,9.0,62,0.00,,,0.16,WeatherCatV1.22B15,2013-12-07 19:13:00,
2013-12-07 14:16:00,35.5,23.8,30.26,NNE,16,1.0,9.0,62,0.00,,,0.16,WeatherCatV1.22B15,2013-12-07 19:16:00,
2013-12-07 14:18:00,35.5,23.8,30.26,NNE,14,3.0,3.0,62,0.00,,,0.16,WeatherCatV1.22B15,2013-12-07 19:18:00,
2013-12-07 14:19:00,35.3,24.0,30.25,WNW,286,5.0,6.0,63,0.00,,,0.16,WeatherCatV1.22B15,2013-12-07 19:19:00,
2013-12-07 14:20:00,35.3,23.6,30.26,WNW,297,3.0,10.0,62,0.00,,,0.16,WeatherCatV1.22B15,2013-12-07 19:20:00,
2013-12-07 14:21:00,35.2,23.1,30.26,East,80,2.0,9.0,61,0.00,,,0.16,WeatherCatV1.22B15,2013-12-07 19:21:00,
2013-12-07 14:24:00,35.1,23.8,30.25,West,265,3.0,7.0,63,0.00,,,0.16,WeatherCatV1.22B15,2013-12-07 19:24:00,
2013-12-07 14:25:00,34.9,23.2,30.26,WSW,258,5.0,7.0,62,0.00,,,0.16,WeatherCatV1.22B15,2013-12-07 19:25:00,
2013-12-07 14:26:00,34.9,23.2,30.26,WNW,296,2.0,7.0,62,0.00,,,0.16,WeatherCatV1.22B15,2013-12-07 19:26:00,
2013-12-07 14:27:00,34.8,23.1,30.26,WNW,298,2.0,3.0,62,0.00,,,0.16,WeatherCatV1.22B15,2013-12-07 19:27:00,
2013-12-07 14:29:00,34.8,22.7,30.26,WNW,300,3.0,13.0,61,0.00,,,0.16,WeatherCatV1.22B15,2013-12-07 19:29:00,
2013-12-07 14:30:00,34.8,22.7,30.25,WNW,288,6.0,13.0,61,0.00,,,0.16,WeatherCatV1.22B15,2013-12-07 19:30:00,
2013-12-07 14:31:00,34.6,22.9,30.25,West,259,3.0,6.0,62,0.00,,,0.16,WeatherCatV1.22B15,2013-12-07 19:31:00,
2013-12-07 14:32:00,34.6,22.9,30.26,WSW,251,7.0,9.0,62,0.00,,,0.16,WeatherCatV1.22B15,2013-12-07 19:32:00,
2013-12-07 14:33:00,34.8,22.7,30.26,West,268,6.0,9.0,61,0.00,,,0.16,WeatherCatV1.22B15,2013-12-07 19:33:00,
2013-12-07 14:34:00,34.7,22.6,30.26,West,259,5.0,8.0,61,0.00,,,0.16,WeatherCatV1.22B15,2013-12-07 19:34:00,
2013-12-07 14:36:00,34.7,22.6,30.26,West,274,2.0,5.0,61,0.00,,,0.16,WeatherCatV1.22B15,2013-12-07 19:36:00,
2013-12-07 14:37:00,34.8,23.1,30.26,West,274,4.0,4.0,62,0.00,,,0.16,WeatherCatV1.22B15,2013-12-07 19:37:00,
2013-12-07 14:39:00,34.6,22.9,30.26,WSW,240,1.0,6.0,62,0.00,,,0.16,WeatherCatV1.22B15,2013-12-07 19:39:00,
2013-12-07 14:41:00,34.6,22.9,30.26,WSW,242,1.0,4.0,62,0.00,,,0.16,WeatherCatV1.22B15,2013-12-07 19:41:00,
2013-12-07 14:44:00,34.5,23.2,30.26,WSW,244,6.0,8.0,63,0.00,,,0.16,WeatherCatV1.22B15,2013-12-07 19:44:00,
2013-12-07 14:45:00,34.5,22.8,30.26,West,274,4.0,8.0,62,0.00,,,0.16,WeatherCatV1.22B15,2013-12-07 19:45:00,
2013-12-07 14:46:00,34.5,22.8,30.26,West,278,3.0,5.0,62,0.00,,,0.16,WeatherCatV1.22B15,2013-12-07 19:46:00,
2013-12-07 14:47:00,34.3,22.6,30.26,West,277,3.0,5.0,62,0.00,,,0.16,WeatherCatV1.22B15,2013-12-07 19:47:00,
2013-12-07 14:48:00,34.3,23.0,30.26,West,281,3.0,4.0,63,0.00,,,0.16,WeatherCatV1.22B15,2013-12-07 19:48:00,
2013-12-07 14:50:00,34.4,22.8,30.26,WNW,292,1.0,4.0,62,0.00,,,0.16,WeatherCatV1.22B15,2013-12-07 19:50:00,
2013-12-07 14:51:00,34.3,23.0,30.27,WNW,282,2.0,5.0,63,0.00,,,0.16,WeatherCatV1.22B15,2013-12-07 19:51:00,
2013-12-07 14:53:00,34.3,22.6,30.26,West,271,2.0,6.0,62,0.00,,,0.16,WeatherCatV1.22B15,2013-12-07 19:53:00,
2013-12-07 14:55:00,34.2,22.9,30.26,West,271,0.0,4.0,63,0.00,,,0.16,WeatherCatV1.22B15,2013-12-07 19:55:00,
2013-12-07 14:56:00,34.2,22.9,30.26,West,271,1.0,3.0,63,0.00,,,0.16,WeatherCatV1.22B15,2013-12-07 19:56:00,
2013-12-07 14:57:00,34.2,23.3,30.26,West,271,0.0,3.0,64,0.00,,,0.16,WeatherCatV1.22B15,2013-12-07 19:57:00,
2013-12-07 14:58:00,34.2,23.3,30.27,West,271,1.0,2.0,64,0.00,,,0.16,WeatherCatV1.22B15,2013-12-07 19:58:00,
2013-12-07 15:00:00,34.1,23.2,30.27,West,271,1.0,4.0,64,0.00,,,0.16,WeatherCatV1.22B15,2013-12-07 20:00:00,
2013-12-07 15:01:00,34.1,23.2,30.27,West,271,2.0,4.0,64,0.00,,,0.16,WeatherCatV1.22B15,2013-12-07 20:01:00,
2013-12-07 15:02:00,34.0,23.1,30.27,West,275,4.0,5.0,64,0.00,,,0.16,WeatherCatV1.22B15,2013-12-07 20:02:00,
2013-12-07 15:03:00,34.1,23.2,30.27,West,277,1.0,5.0,64,0.00,,,0.16,WeatherCatV1.22B15,2013-12-07 20:03:00,
2013-12-07 15:05:00,34.0,23.1,30.27,West,277,0.0,3.0,64,0.00,,,0.16,WeatherCatV1.22B15,2013-12-07 20:05:00,
2013-12-07 15:06:00,33.9,23.0,30.27,West,277,3.0,4.0,64,0.00,,,0.16,WeatherCatV1.22B15,2013-12-07 20:06:00,
2013-12-07 15:07:00,33.9,23.0,30.27,West,277,4.0,4.0,64,0.00,,,0.16,WeatherCatV1.22B15,2013-12-07 20:07:00,
2013-12-07 15:08:00,33.9,23.0,30.27,West,277,1.0,3.0,64,0.00,,,0.16,WeatherCatV1.22B15,2013-12-07 20:08:00,
2013-12-07 15:11:00,33.9,23.0,30.27,WNW,287,2.0,6.0,64,0.00,,,0.16,WeatherCatV1.22B15,2013-12-07 20:11:00,
2013-12-07 15:12:00,33.9,23.0,30.28,WNW,287,3.0,4.0,64,0.00,,,0.16,WeatherCatV1.22B15,2013-12-07 20:12:00,
2013-12-07 15:14:00,33.9,23.0,30.27,WNW,287,1.0,5.0,64,0.00,,,0.16,WeatherCatV1.22B15,2013-12-07 20:14:00,
2013-12-07 15:16:00,33.9,23.0,30.27,WNW,287,0.0,2.0,64,0.00,,,0.16,WeatherCatV1.22B15,2013-12-07 20:16:00,
2013-12-07 15:17:00,33.9,23.4,30.28,WNW,287,0.0,2.0,65,0.00,,,0.16,WeatherCatV1.22B15,2013-12-07 20:17:00,
2013-12-07 15:19:00,33.8,23.3,30.27,WNW,290,6.0,6.0,65,0.00,,,0.16,WeatherCatV1.22B15,2013-12-07 20:19:00,
2013-12-07 15:20:00,33.8,22.9,30.27,North,7,3.0,6.0,64,0.00,,,0.16,WeatherCatV1.22B15,2013-12-07 20:20:00,
2013-12-07 15:21:00,33.7,22.5,30.28,NNW,342,6.0,7.0,63,0.00,,,0.16,WeatherCatV1.22B15,2013-12-07 20:21:00,
2013-12-07 15:22:00,33.9,22.6,30.28,NE,48,3.0,7.0,63,0.00,,,0.16,WeatherCatV1.22B15,2013-12-07 20:22:00,
2013-12-07 15:23:00,33.9,22.3,30.28,NE,44,1.0,7.0,62,0.00,,,0.16,WeatherCatV1.22B15,2013-12-07 20:23:00,
2013-12-07 15:24:00,33.9,22.6,30.28,NNW,335,3.0,7.0,63,0.00,,,0.16,WeatherCatV1.22B15,2013-12-07 20:24:00,
2013-12-07 15:26:00,34.0,22.4,30.28,NNE,12,4.0,7.0,62,0.00,,,0.16,WeatherCatV1.22B15,2013-12-07 20:26:00,
2013-12-07 15:27:00,34.0,22.4,30.28,NE,41,2.0,5.0,62,0.00,,,0.16,WeatherCatV1.22B15,2013-12-07 20:27:00,
2013-12-07 15:29:00,34.1,22.5,30.28,NW,319,3.0,4.0,62,0.00,,,0.16,WeatherCatV1.22B15,2013-12-07 20:29:00,
2013-12-07 15:31:00,34.2,22.2,30.29,NNE,27,2.0,6.0,61,0.00,,,0.16,WeatherCatV1.22B15,2013-12-07 20:31:00,
2013-12-07 15:32:00,34.2,22.2,30.29,NW,320,4.0,6.0,61,0.00,,,0.16,WeatherCatV1.22B15,2013-12-07 20:32:00,
2013-12-07 15:33:00,34.2,22.2,30.28,NW,317,1.0,6.0,61,0.00,,,0.16,WeatherCatV1.22B15,2013-12-07 20:33:00,
2013-12-07 15:34:00,34.2,22.2,30.28,NW,323,4.0,4.0,61,0.00,,,0.16,WeatherCatV1.22B15,2013-12-07 20:34:00,
2013-12-07 15:35:00,34.2,22.6,30.29,NNW,331,3.0,4.0,62,0.00,,,0.16,WeatherCatV1.22B15,2013-12-07 20:35:00,
2013-12-07 15:36:00,34.2,22.2,30.29,NNW,328,2.0,7.0,61,0.00,,,0.16,WeatherCatV1.22B15,2013-12-07 20:36:00,
2013-12-07 15:38:00,34.2,21.8,30.29,NNE,29,2.0,8.0,60,0.00,,,0.16,WeatherCatV1.22B15,2013-12-07 20:38:00,
2013-12-07 15:40:00,34.2,22.2,30.29,NNE,29,1.0,3.0,61,0.00,,,0.16,WeatherCatV1.22B15,2013-12-07 20:40:00,
2013-12-07 15:41:00,34.2,22.6,30.29,NNE,29,2.0,2.0,62,0.00,,,0.16,WeatherCatV1.22B15,2013-12-07 20:41:00,
2013-12-07 15:43:00,34.0,22.4,30.29,NW,323,1.0,6.0,62,0.00,,,0.16,WeatherCatV1.22B15,2013-12-07 20:43:00,
2013-12-07 15:44:00,34.0,22.4,30.29,NW,323,2.0,6.0,62,0.00,,,0.16,WeatherCatV1.22B15,2013-12-07 20:44:00,
2013-12-07 15:45:00,34.0,22.4,30.29,West,279,2.0,4.0,62,0.00,,,0.16,WeatherCatV1.22B15,2013-12-07 20:45:00,
2013-12-07 15:46:00,34.0,22.4,30.29,West,261,2.0,4.0,62,0.00,,,0.16,WeatherCatV1.22B15,2013-12-07 20:46:00,
2013-12-07 15:47:00,34.0,22.0,30.29,NW,324,3.0,7.0,61,0.00,,,0.16,WeatherCatV1.22B15,2013-12-07 20:47:00,
2013-12-07 15:48:00,34.0,22.0,30.30,WNW,286,2.0,7.0,61,0.00,,,0.16,WeatherCatV1.22B15,2013-12-07 20:48:00,
2013-12-07 15:49:00,33.9,21.9,30.29,ENE,66,2.0,5.0,61,0.00,,,0.16,WeatherCatV1.22B15,2013-12-07 20:49:00,
2013-12-07 15:50:00,33.9,21.5,30.29,ENE,65,1.0,5.0,60,0.00,,,0.16,WeatherCatV1.22B15,2013-12-07 20:50:00,
2013-12-07 15:52:00,33.9,21.9,30.29,West,259,2.0,6.0,61,0.00,,,0.16,WeatherCatV1.22B15,2013-12-07 20:52:00,
2013-12-07 15:53:00,33.8,21.8,30.29,West,261,1.0,4.0,61,0.00,,,0.16,WeatherCatV1.22B15,2013-12-07 20:53:00,
2013-12-07 15:54:00,33.8,21.8,30.29,West,281,3.0,5.0,61,0.00,,,0.16,WeatherCatV1.22B15,2013-12-07 20:54:00,
2013-12-07 15:55:00,33.7,21.3,30.29,NNE,22,2.0,7.0,60,0.00,,,0.16,WeatherCatV1.22B15,2013-12-07 20:55:00,
2013-12-07 15:56:00,33.7,21.3,30.29,NNE,22,1.0,7.0,60,0.00,,,0.16,WeatherCatV1.22B15,2013-12-07 20:56:00,
2013-12-07 15:57:00,33.6,22.0,30.29,WSW,246,4.0,6.0,62,0.00,,,0.16,WeatherCatV1.22B15,2013-12-07 20:57:00,
2013-12-07 15:59:00,33.6,21.6,30.29,NE,45,5.0,5.0,61,0.00,,,0.16,WeatherCatV1.22B15,2013-12-07 20:59:00,
2013-12-07 16:00:00,33.6,21.6,30.30,WNW,288,1.0,5.0,61,0.00,,,0.16,WeatherCatV1.22B15,2013-12-07 21:00:00,
2013-12-07 16:01:00,33.5,21.5,30.30,WNW,288,2.0,4.0,61,0.00,,,0.16,WeatherCatV1.22B15,2013-12-07 21:01:00,
2013-12-07 16:02:00,33.5,21.5,30.30,WNW,288,3.0,4.0,61,0.00,,,0.16,WeatherCatV1.22B15,2013-12-07 21:02:00,
2013-12-07 16:05:00,33.3,21.7,30.30,North,354,3.0,6.0,62,0.00,,,0.16,WeatherCatV1.22B15,2013-12-07 21:05:00,
2013-12-07 16:06:00,33.3,21.7,30.30,North,354,1.0,4.0,62,0.00,,,0.16,WeatherCatV1.22B15,2013-12-07 21:06:00,
2013-12-07 16:08:00,33.3,21.3,30.30,NNW,330,3.0,6.0,61,0.00,,,0.16,WeatherCatV1.22B15,2013-12-07 21:08:00,
2013-12-07 16:09:00,33.3,21.3,30.30,NW,326,3.0,6.0,61,0.00,,,0.16,WeatherCatV1.22B15,2013-12-07 21:09:00,
2013-12-07 16:11:00,33.3,21.7,30.31,NW,315,0.0,5.0,62,0.00,,,0.16,WeatherCatV1.22B15,2013-12-07 21:11:00,
2013-12-07 16:12:00,33.2,21.6,30.31,NNE,32,3.0,3.0,62,0.00,,,0.16,WeatherCatV1.22B15,2013-12-07 21:12:00,
2013-12-07 16:13:00,33.2,21.6,30.30,NE,37,0.0,4.0,62,0.00,,,0.16,WeatherCatV1.22B15,2013-12-07 21:13:00,
2013-12-07 16:14:00,33.2,21.6,30.30,NE,37,1.0,2.0,62,0.00,,,0.16,WeatherCatV1.22B15,2013-12-07 21:14:00,
2013-12-07 16:16:00,33.1,21.9,30.31,WNW,297,2.0,5.0,63,0.00,,,0.16,WeatherCatV1.22B15,2013-12-07 21:16:00,
2013-12-07 16:18:00,32.9,21.7,30.30,WNW,292,2.0,5.0,63,0.00,,,0.16,WeatherCatV1.22B15,2013-12-07 21:18:00,
2013-12-07 16:19:00,32.9,21.3,30.31,WNW,292,1.0,3.0,62,0.00,,,0.16,WeatherCatV1.22B15,2013-12-07 21:19:00,
2013-12-07 16:23:00,32.7,21.1,30.31,WNW,292,1.0,3.0,62,0.00,,,0.16,WeatherCatV1.22B15,2013-12-07 21:23:00,
2013-12-07 16:24:00,32.7,21.1,30.31,WNW,292,0.0,2.0,62,0.00,,,0.16,WeatherCatV1.22B15,2013-12-07 21:24:00,
2013-12-07 16:25:00,32.6,21.4,30.31,WNW,293,0.0,2.0,63,0.00,,,0.16,WeatherCatV1.22B15,2013-12-07 21:25:00,
2013-12-07 16:27:00,32.6,21.8,30.31,WNW,292,0.0,2.0,64,0.00,,,0.16,WeatherCatV1.22B15,2013-12-07 21:27:00,
2013-12-07 16:29:00,32.5,21.7,30.31,WNW,292,0.0,0.0,64,0.00,,,0.16,WeatherCatV1.22B15,2013-12-07 21:29:00,
2013-12-07 16:30:00,32.5,21.7,30.31,WNW,292,0.0,0.0,64,0.00,,,0.16,WeatherCatV1.22B15,2013-12-07 21:30:00,
2013-12-07 16:31:00,32.3,21.5,30.31,WNW,293,0.0,2.0,64,0.00,,,0.16,WeatherCatV1.22B15,2013-12-07 21:31:00,
2013-12-07 16:32:00,32.4,21.2,30.31,WNW,292,0.0,2.0,63,0.00,,,0.16,WeatherCatV1.22B15,2013-12-07 21:32:00,
2013-12-07 16:34:00,32.2,21.4,30.31,WNW,292,1.0,3.0,64,0.00,,,0.16,WeatherCatV1.22B15,2013-12-07 21:34:00,
2013-12-07 16:35:00,32.2,21.4,30.31,WNW,292,2.0,3.0,64,0.00,,,0.16,WeatherCatV1.22B15,2013-12-07 21:35:00,
2013-12-07 16:37:00,32.1,21.3,30.32,WNW,292,2.0,3.0,64,0.00,,,0.16,WeatherCatV1.22B15,2013-12-07 21:37:00,
2013-12-07 16:38:00,32.1,21.3,30.31,WNW,292,0.0,3.0,64,0.00,,,0.16,WeatherCatV1.22B15,2013-12-07 21:38:00,
2013-12-07 16:40:00,31.9,21.5,30.31,WNW,292,0.0,2.0,65,0.00,,,0.16,WeatherCatV1.22B15,2013-12-07 21:40:00,
2013-12-07 16:41:00,31.9,21.5,30.32,WNW,292,0.0,2.0,65,0.00,,,0.16,WeatherCatV1.22B15,2013-12-07 21:41:00,
2013-12-07 16:42:00,31.9,21.5,30.32,WNW,292,1.0,2.0,65,0.00,,,0.16,WeatherCatV1.22B15,2013-12-07 21:42:00,
2013-12-07 16:44:00,31.6,21.6,30.32,WNW,292,0.0,2.0,66,0.00,,,0.16,WeatherCatV1.22B15,2013-12-07 21:44:00,
2013-12-07 16:45:00,31.6,21.6,30.31,WNW,292,1.0,3.0,66,0.00,,,0.16,WeatherCatV1.22B15,2013-12-07 21:45:00,
2013-12-07 16:46:00,31.5,21.5,30.32,WNW,292,2.0,3.0,66,0.00,,,0.16,WeatherCatV1.22B15,2013-12-07 21:46:00,
2013-12-07 16:48:00,31.3,20.9,30.32,WNW,292,2.0,3.0,65,0.00,,,0.16,WeatherCatV1.22B15,2013-12-07 21:48:00,
2013-12-07 16:50:00,31.3,20.9,30.32,NW,314,1.0,5.0,65,0.00,,,0.16,WeatherCatV1.22B15,2013-12-07 21:50:00,
2013-12-07 16:52:00,31.2,20.8,30.33,NW,314,1.0,2.0,65,0.00,,,0.16,WeatherCatV1.22B15,2013-12-07 21:52:00,
2013-12-07 16:53:00,31.2,20.8,30.32,NNW,334,3.0,5.0,65,0.00,,,0.16,WeatherCatV1.22B15,2013-12-07 21:53:00,
2013-12-07 16:54:00,31.2,20.8,30.32,North,356,3.0,6.0,65,0.00,,,0.16,WeatherCatV1.22B15,2013-12-07 21:54:00,
2013-12-07 16:57:00,31.4,21.0,30.32,North,358,1.0,3.0,65,0.00,,,0.16,WeatherCatV1.22B15,2013-12-07 21:57:00,
2013-12-07 16:58:00,31.4,21.0,30.32,North,358,1.0,2.0,65,0.00,,,0.16,WeatherCatV1.22B15,2013-12-07 21:58:00,
2013-12-07 16:59:00,31.2,21.2,30.32,North,358,1.0,3.0,66,0.00,,,0.16,WeatherCatV1.22B15,2013-12-07 21:59:00,
2013-12-07 17:01:00,31.2,20.8,30.32,North,2,0.0,6.0,65,0.00,,,0.16,WeatherCatV1.22B15,2013-12-07 22:01:00,
2013-12-07 17:02:00,31.2,20.8,30.32,North,2,2.0,5.0,65,0.00,,,0.16,WeatherCatV1.22B15,2013-12-07 22:02:00,
2013-12-07 17:03:00,31.2,20.8,30.33,North,2,2.0,3.0,65,0.00,,,0.16,WeatherCatV1.22B15,2013-12-07 22:03:00,
2013-12-07 17:04:00,31.2,20.8,30.33,North,2,0.0,2.0,65,0.00,,,0.16,WeatherCatV1.22B15,2013-12-07 22:04:00,
2013-12-07 17:06:00,31.2,20.8,30.33,North,1,3.0,4.0,65,0.00,,,0.16,WeatherCatV1.22B15,2013-12-07 22:06:00,
2013-12-07 17:07:00,31.2,20.8,30.33,North,1,1.0,4.0,65,0.00,,,0.16,WeatherCatV1.22B15,2013-12-07 22:07:00,
2013-12-07 17:08:00,31.2,20.8,30.33,North,1,1.0,4.0,65,0.00,,,0.16,WeatherCatV1.22B15,2013-12-07 22:08:00,
2013-12-07 17:10:00,31.2,20.5,30.33,North,1,1.0,3.0,64,0.00,,,0.16,WeatherCatV1.22B15,2013-12-07 22:10:00,
2013-12-07 17:11:00,31.2,20.5,30.33,North,1,3.0,3.0,64,0.00,,,0.16,WeatherCatV1.22B15,2013-12-07 22:11:00,
2013-12-07 17:12:00,31.2,20.5,30.33,North,0,1.0,4.0,64,0.00,,,0.16,WeatherCatV1.22B15,2013-12-07 22:12:00,
2013-12-07 17:13:00,31.2,20.5,30.33,North,0,0.0,2.0,64,0.00,,,0.16,WeatherCatV1.22B15,2013-12-07 22:13:00,
2013-12-07 17:15:00,31.2,20.5,30.33,North,0,1.0,3.0,64,0.00,,,0.16,WeatherCatV1.22B15,2013-12-07 22:15:00,
2013-12-07 17:18:00,31.1,20.7,30.33,North,0,0.0,3.0,65,0.00,,,0.16,WeatherCatV1.22B15,2013-12-07 22:18:00,
2013-12-07 17:20:00,31.1,20.7,30.33,North,0,0.0,3.0,65,0.00,,,0.16,WeatherCatV1.22B15,2013-12-07 22:20:00,
2013-12-07 17:21:00,31.0,20.6,30.33,North,0,2.0,2.0,65,0.00,,,0.16,WeatherCatV1.22B15,2013-12-07 22:21:00,
2013-12-07 17:22:00,30.9,20.5,30.33,North,0,0.0,2.0,65,0.00,,,0.16,WeatherCatV1.22B15,2013-12-07 22:22:00,
2013-12-07 17:23:00,30.9,20.5,30.33,North,0,1.0,4.0,65,0.00,,,0.16,WeatherCatV1.22B15,2013-12-07 22:23:00,
2013-12-07 17:24:00,30.9,20.5,30.33,North,0,0.0,1.0,65,0.00,,,0.16,WeatherCatV1.22B15,2013-12-07 22:24:00,
2013-12-07 17:25:00,30.9,20.5,30.33,North,0,1.0,1.0,65,0.00,,,0.16,WeatherCatV1.22B15,2013-12-07 22:25:00,
2013-12-07 17:26:00,30.8,20.4,30.33,North,0,0.0,2.0,65,0.00,,,0.16,WeatherCatV1.22B15,2013-12-07 22:26:00,
2013-12-07 17:27:00,30.8,20.4,30.33,North,0,1.0,3.0,65,0.00,,,0.16,WeatherCatV1.22B15,2013-12-07 22:27:00,
2013-12-07 17:30:00,30.6,20.2,30.33,North,0,0.0,2.0,65,0.00,,,0.16,WeatherCatV1.22B15,2013-12-07 22:30:00,
2013-12-07 17:31:00,30.6,20.2,30.33,North,0,0.0,2.0,65,0.00,,,0.16,WeatherCatV1.22B15,2013-12-07 22:31:00,
2013-12-07 17:32:00,30.5,20.2,30.33,North,0,0.0,0.0,65,0.00,,,0.16,WeatherCatV1.22B15,2013-12-07 22:32:00,
2013-12-07 17:33:00,30.5,20.2,30.33,North,0,0.0,0.0,65,0.00,,,0.16,WeatherCatV1.22B15,2013-12-07 22:33:00,
2013-12-07 17:35:00,30.5,20.2,30.34,North,0,0.0,0.0,65,0.00,,,0.16,WeatherCatV1.22B15,2013-12-07 22:35:00,
2013-12-07 17:36:00,30.5,20.2,30.34,North,0,0.0,0.0,65,0.00,,,0.16,WeatherCatV1.22B15,2013-12-07 22:36:00,
2013-12-07 17:37:00,30.5,19.8,30.34,North,0,1.0,3.0,64,0.00,,,0.16,WeatherCatV1.22B15,2013-12-07 22:37:00,
2013-12-07 17:38:00,30.3,20.0,30.34,North,0,0.0,3.0,65,0.00,,,0.16,WeatherCatV1.22B15,2013-12-07 22:38:00,
2013-12-07 17:39:00,30.3,20.0,30.33,North,0,0.0,2.0,65,0.00,,,0.16,WeatherCatV1.22B15,2013-12-07 22:39:00,
2013-12-07 17:41:00,30.3,20.0,30.34,North,0,0.0,2.0,65,0.00,,,0.16,WeatherCatV1.22B15,2013-12-07 22:41:00,
2013-12-07 17:42:00,30.3,20.0,30.34,North,0,0.0,0.0,65,0.00,,,0.16,WeatherCatV1.22B15,2013-12-07 22:42:00,
2013-12-07 17:43:00,30.3,20.0,30.34,North,0,1.0,3.0,65,0.00,,,0.16,WeatherCatV1.22B15,2013-12-07 22:43:00,
2013-12-07 17:44:00,30.3,20.0,30.34,North,0,0.0,3.0,65,0.00,,,0.16,WeatherCatV1.22B15,2013-12-07 22:44:00,
2013-12-07 17:46:00,30.2,19.9,30.34,North,0,0.0,1.0,65,0.00,,,0.16,WeatherCatV1.22B15,2013-12-07 22:46:00,
2013-12-07 17:47:00,30.2,19.9,30.34,North,0,1.0,1.0,65,0.00,,,0.16,WeatherCatV1.22B15,2013-12-07 22:47:00,
2013-12-07 17:48:00,30.2,19.5,30.34,North,0,2.0,3.0,64,0.00,,,0.16,WeatherCatV1.22B15,2013-12-07 22:48:00,
2013-12-07 17:52:00,30.2,19.5,30.34,North,0,0.0,0.0,64,0.00,,,0.16,WeatherCatV1.22B15,2013-12-07 22:52:00,
2013-12-07 17:53:00,30.2,19.9,30.34,North,0,0.0,0.0,65,0.00,,,0.16,WeatherCatV1.22B15,2013-12-07 22:53:00,
2013-12-07 17:54:00,30.2,19.9,30.34,North,0,0.0,1.0,65,0.00,,,0.16,WeatherCatV1.22B15,2013-12-07 22:54:00,
2013-12-07 17:56:00,30.2,19.9,30.34,North,0,0.0,0.0,65,0.00,,,0.16,WeatherCatV1.22B15,2013-12-07 22:56:00,
2013-12-07 17:58:00,30.0,19.3,30.35,North,0,0.0,0.0,64,0.00,,,0.16,WeatherCatV1.22B15,2013-12-07 22:58:00,
2013-12-07 17:59:00,30.1,19.8,30.35,North,0,0.0,0.0,65,0.00,,,0.16,WeatherCatV1.22B15,2013-12-07 22:59:00,
2013-12-07 18:02:00,29.9,20.6,30.35,North,0,0.0,0.0,68,0.00,,,0.16,WeatherCatV1.22B15,2013-12-07 23:02:00,
2013-12-07 18:03:00,29.9,20.6,30.35,North,0,0.0,0.0,68,0.00,,,0.16,WeatherCatV1.22B15,2013-12-07 23:03:00,
2013-12-07 18:04:00,29.8,20.9,30.35,North,0,0.0,0.0,69,0.00,,,0.16,WeatherCatV1.22B15,2013-12-07 23:04:00,
2013-12-07 18:05:00,29.7,20.8,30.35,North,0,0.0,0.0,69,0.00,,,0.16,WeatherCatV1.22B15,2013-12-07 23:05:00,
2013-12-07 18:06:00,29.6,20.7,30.35,North,0,0.0,1.0,69,0.00,,,0.16,WeatherCatV1.22B15,2013-12-07 23:06:00,
2013-12-07 18:09:00,29.3,20.4,30.36,North,0,1.0,2.0,69,0.00,,,0.16,WeatherCatV1.22B15,2013-12-07 23:09:00,
2013-12-07 18:10:00,29.3,20.8,30.36,North,0,0.0,2.0,70,0.00,,,0.16,WeatherCatV1.22B15,2013-12-07 23:10:00,
2013-12-07 18:11:00,29.1,20.6,30.35,North,0,0.0,2.0,70,0.00,,,0.16,WeatherCatV1.22B15,2013-12-07 23:11:00,
2013-12-07 18:13:00,29.0,20.5,30.35,North,0,0.0,0.0,70,0.00,,,0.16,WeatherCatV1.22B15,2013-12-07 23:13:00,
2013-12-07 18:15:00,28.8,20.6,30.36,North,0,0.0,0.0,71,0.00,,,0.16,WeatherCatV1.22B15,2013-12-07 23:15:00,
2013-12-07 18:17:00,28.7,20.5,30.36,North,0,0.0,0.0,71,0.00,,,0.16,WeatherCatV1.22B15,2013-12-07 23:17:00,
2013-12-07 18:19:00,28.5,20.3,30.35,North,0,0.0,0.0,71,0.00,,,0.16,WeatherCatV1.22B15,2013-12-07 23:19:00,
2013-12-07 18:20:00,28.5,20.3,30.36,North,0,0.0,0.0,71,0.00,,,0.16,WeatherCatV1.22B15,2013-12-07 23:20:00,
2013-12-07 18:21:00,28.4,20.2,30.36,North,0,0.0,0.0,71,0.00,,,0.16,WeatherCatV1.22B15,2013-12-07 23:21:00,
2013-12-07 18:22:00,28.4,20.2,30.36,North,0,0.0,0.0,71,0.00,,,0.16,WeatherCatV1.22B15,2013-12-07 23:22:00,
2013-12-07 18:25:00,28.1,19.9,30.36,North,0,0.0,0.0,71,0.00,,,0.16,WeatherCatV1.22B15,2013-12-07 23:25:00,
2013-12-07 18:26:00,28.1,19.9,30.36,North,0,0.0,0.0,71,0.00,,,0.16,WeatherCatV1.22B15,2013-12-07 23:26:00,
2013-12-07 18:27:00,27.9,19.7,30.35,North,0,0.0,0.0,71,0.00,,,0.16,WeatherCatV1.22B15,2013-12-07 23:27:00,
2013-12-07 18:28:00,27.9,20.1,30.36,North,0,0.0,0.0,72,0.00,,,0.16,WeatherCatV1.22B15,2013-12-07 23:28:00,
2013-12-07 18:30:00,27.8,19.6,30.36,North,0,0.0,0.0,71,0.00,,,0.16,WeatherCatV1.22B15,2013-12-07 23:30:00,
2013-12-07 18:32:00,27.7,19.9,30.36,North,0,0.0,0.0,72,0.00,,,0.16,WeatherCatV1.22B15,2013-12-07 23:32:00,
2013-12-07 18:33:00,27.6,19.8,30.36,North,0,0.0,0.0,72,0.00,,,0.16,WeatherCatV1.22B15,2013-12-07 23:33:00,
2013-12-07 18:34:00,27.5,19.7,30.36,North,0,0.0,0.0,72,0.00,,,0.16,WeatherCatV1.22B15,2013-12-07 23:34:00,
2013-12-07 18:37:00,27.5,20.0,30.36,North,0,0.0,0.0,73,0.00,,,0.16,WeatherCatV1.22B15,2013-12-07 23:37:00,
2013-12-07 18:38:00,27.3,19.8,30.36,North,0,0.0,0.0,73,0.00,,,0.16,WeatherCatV1.22B15,2013-12-07 23:38:00,
2013-12-07 18:39:00,27.4,19.9,30.36,North,0,0.0,0.0,73,0.00,,,0.16,WeatherCatV1.22B15,2013-12-07 23:39:00,
2013-12-07 18:40:00,27.4,19.9,30.37,North,0,0.0,0.0,73,0.00,,,0.16,WeatherCatV1.22B15,2013-12-07 23:40:00,
2013-12-07 18:42:00,27.2,20.0,30.37,North,0,0.0,0.0,74,0.00,,,0.16,WeatherCatV1.22B15,2013-12-07 23:42:00,
2013-12-07 18:43:00,27.2,20.0,30.37,North,0,0.0,0.0,74,0.00,,,0.16,WeatherCatV1.22B15,2013-12-07 23:43:00,
2013-12-07 18:44:00,27.2,20.0,30.36,North,0,0.0,0.0,74,0.00,,,0.16,WeatherCatV1.22B15,2013-12-07 23:44:00,
2013-12-07 18:45:00,27.2,20.0,30.37,North,0,0.0,0.0,74,0.00,,,0.16,WeatherCatV1.22B15,2013-12-07 23:45:00,
2013-12-07 18:47:00,27.0,20.1,30.37,North,0,0.0,0.0,75,0.00,,,0.16,WeatherCatV1.22B15,2013-12-07 23:47:00,
2013-12-07 18:49:00,27.1,20.2,30.37,North,0,0.0,0.0,75,0.00,,,0.16,WeatherCatV1.22B15,2013-12-07 23:49:00,
2013-12-07 18:50:00,27.0,20.5,30.37,North,0,0.0,0.0,76,0.00,,,0.16,WeatherCatV1.22B15,2013-12-07 23:50:00,
2013-12-07 18:51:00,26.9,20.0,30.38,North,0,0.0,0.0,75,0.00,,,0.16,WeatherCatV1.22B15,2013-12-07 23:51:00,
2013-12-07 18:53:00,26.9,20.0,30.37,North,0,0.0,0.0,75,0.00,,,0.16,WeatherCatV1.22B15,2013-12-07 23:53:00,
2013-12-07 18:55:00,26.7,20.2,30.37,North,0,0.0,0.0,76,0.00,,,0.16,WeatherCatV1.22B15,2013-12-07 23:55:00,
2013-12-07 18:56:00,26.8,20.3,30.38,North,0,0.0,0.0,76,0.00,,,0.16,WeatherCatV1.22B15,2013-12-07 23:56:00,
2013-12-07 18:57:00,26.8,20.3,30.38,North,0,0.0,0.0,76,0.00,,,0.16,WeatherCatV1.22B15,2013-12-07 23:57:00,
2013-12-07 18:58:00,26.8,20.3,30.37,North,0,0.0,0.0,76,0.00,,,0.16,WeatherCatV1.22B15,2013-12-07 23:58:00,
2013-12-07 19:00:00,26.6,20.4,30.38,North,0,0.0,0.0,77,0.00,,,0.16,WeatherCatV1.22B15,2013-12-08 00:00:00,
2013-12-07 19:02:00,26.6,20.4,30.38,North,0,0.0,0.0,77,0.00,,,0.16,WeatherCatV1.22B15,2013-12-08 00:02:00,
2013-12-07 19:03:00,26.6,20.7,30.38,North,0,0.0,0.0,78,0.00,,,0.16,WeatherCatV1.22B15,2013-12-08 00:03:00,
2013-12-07 19:07:00,26.5,20.6,30.38,North,0,0.0,0.0,78,0.00,,,0.16,WeatherCatV1.22B15,2013-12-08 00:07:00,
2013-12-07 19:08:00,26.5,20.6,30.38,North,0,0.0,0.0,78,0.00,,,0.16,WeatherCatV1.22B15,2013-12-08 00:08:00,
2013-12-07 19:10:00,26.4,20.5,30.38,North,0,0.0,0.0,78,0.00,,,0.16,WeatherCatV1.22B15,2013-12-08 00:10:00,
2013-12-07 19:12:00,26.3,20.4,30.39,North,0,0.0,0.0,78,0.00,,,0.16,WeatherCatV1.22B15,2013-12-08 00:12:00,
2013-12-07 19:13:00,26.3,20.4,30.39,North,0,0.0,0.0,78,0.00,,,0.16,WeatherCatV1.22B15,2013-12-08 00:13:00,
2013-12-07 19:14:00,26.4,20.5,30.39,North,0,0.0,0.0,78,0.00,,,0.16,WeatherCatV1.22B15,2013-12-08 00:14:00,
2013-12-07 19:17:00,26.2,20.6,30.39,North,0,0.0,0.0,79,0.00,,,0.16,WeatherCatV1.22B15,2013-12-08 00:17:00,
2013-12-07 19:18:00,26.1,20.5,30.39,North,0,0.0,0.0,79,0.00,,,0.16,WeatherCatV1.22B15,2013-12-08 00:18:00,
2013-12-07 19:19:00,26.0,20.4,30.39,North,0,0.0,0.0,79,0.00,,,0.16,WeatherCatV1.22B15,2013-12-08 00:19:00,
2013-12-07 19:20:00,26.0,20.4,30.39,North,0,0.0,0.0,79,0.00,,,0.16,WeatherCatV1.22B15,2013-12-08 00:20:00,
2013-12-07 19:22:00,26.0,20.4,30.39,North,0,0.0,2.0,79,0.00,,,0.16,WeatherCatV1.22B15,2013-12-08 00:22:00,
2013-12-07 19:25:00,25.9,20.3,30.39,North,0,0.0,0.0,79,0.00,,,0.16,WeatherCatV1.22B15,2013-12-08 00:25:00,
2013-12-07 19:26:00,25.9,20.3,30.40,North,0,0.0,2.0,79,0.00,,,0.16,WeatherCatV1.22B15,2013-12-08 00:26:00,
2013-12-07 19:27:00,25.9,20.3,30.40,North,0,0.0,2.0,79,0.00,,,0.16,WeatherCatV1.22B15,2013-12-08 00:27:00,
2013-12-07 19:30:00,25.9,20.3,30.39,North,0,0.0,0.0,79,0.00,,,0.16,WeatherCatV1.22B15,2013-12-08 00:30:00,
2013-12-07 19:31:00,25.9,20.3,30.39,North,0,0.0,0.0,79,0.00,,,0.16,WeatherCatV1.22B15,2013-12-08 00:31:00,
2013-12-07 19:32:00,25.7,20.4,30.39,North,0,0.0,0.0,80,0.00,,,0.16,WeatherCatV1.22B15,2013-12-08 00:32:00,
2013-12-07 19:33:00,25.7,20.4,30.39,North,0,0.0,0.0,80,0.00,,,0.16,WeatherCatV1.22B15,2013-12-08 00:33:00,
2013-12-07 19:35:00,25.7,20.4,30.39,North,0,0.0,0.0,80,0.00,,,0.16,WeatherCatV1.22B15,2013-12-08 00:35:00,
2013-12-07 19:36:00,25.7,20.4,30.40,North,0,0.0,0.0,80,0.00,,,0.16,WeatherCatV1.22B15,2013-12-08 00:36:00,
2013-12-07 19:38:00,25.7,20.1,30.39,North,0,0.0,0.0,79,0.00,,,0.16,WeatherCatV1.22B15,2013-12-08 00:38:00,
2013-12-07 19:40:00,25.6,20.3,30.39,North,0,0.0,0.0,80,0.00,,,0.16,WeatherCatV1.22B15,2013-12-08 00:40:00,
2013-12-07 19:41:00,25.6,20.3,30.39,North,0,0.0,0.0,80,0.00,,,0.16,WeatherCatV1.22B15,2013-12-08 00:41:00,
2013-12-07 19:43:00,25.4,20.1,30.39,North,0,0.0,0.0,80,0.00,,,0.16,WeatherCatV1.22B15,2013-12-08 00:43:00,
2013-12-07 19:44:00,25.4,20.4,30.39,North,0,0.0,0.0,81,0.00,,,0.16,WeatherCatV1.22B15,2013-12-08 00:44:00,
2013-12-07 19:48:00,25.3,20.3,30.40,North,0,0.0,2.0,81,0.00,,,0.16,WeatherCatV1.22B15,2013-12-08 00:48:00,
2013-12-07 19:49:00,25.3,20.3,30.39,North,0,0.0,1.0,81,0.00,,,0.16,WeatherCatV1.22B15,2013-12-08 00:49:00,
2013-12-07 19:50:00,25.1,20.4,30.40,North,0,0.0,0.0,82,0.00,,,0.16,WeatherCatV1.22B15,2013-12-08 00:50:00,
2013-12-07 19:53:00,25.1,20.4,30.40,North,0,0.0,0.0,82,0.00,,,0.16,WeatherCatV1.22B15,2013-12-08 00:53:00,
2013-12-07 19:55:00,25.1,20.4,30.39,North,0,0.0,0.0,82,0.00,,,0.16,WeatherCatV1.22B15,2013-12-08 00:55:00,
2013-12-07 19:56:00,25.1,20.4,30.39,North,0,0.0,0.0,82,0.00,,,0.16,WeatherCatV1.22B15,2013-12-08 00:56:00,
2013-12-07 19:58:00,25.0,20.3,30.40,North,0,0.0,0.0,82,0.00,,,0.16,WeatherCatV1.22B15,2013-12-08 00:58:00,
2013-12-07 19:59:00,25.0,20.3,30.40,North,0,0.0,0.0,82,0.00,,,0.16,WeatherCatV1.22B15,2013-12-08 00:59:00,
2013-12-07 20:00:00,25.0,20.3,30.40,North,0,1.0,2.0,82,0.00,,,0.16,WeatherCatV1.22B15,2013-12-08 01:00:00,
2013-12-07 20:01:00,25.0,20.3,30.40,North,0,1.0,2.0,82,0.00,,,0.16,WeatherCatV1.22B15,2013-12-08 01:01:00,
2013-12-07 20:02:00,24.8,20.4,30.40,North,0,1.0,2.0,83,0.00,,,0.16,WeatherCatV1.22B15,2013-12-08 01:02:00,
2013-12-07 20:03:00,24.8,20.4,30.41,North,0,0.0,2.0,83,0.00,,,0.16,WeatherCatV1.22B15,2013-12-08 01:03:00,
2013-12-07 20:05:00,24.9,20.5,30.40,North,0,0.0,0.0,83,0.00,,,0.16,WeatherCatV1.22B15,2013-12-08 01:05:00,
2013-12-07 20:06:00,24.6,20.2,30.41,North,0,0.0,0.0,83,0.00,,,0.16,WeatherCatV1.22B15,2013-12-08 01:06:00,
2013-12-07 20:07:00,24.7,20.6,30.41,North,0,0.0,0.0,84,0.00,,,0.16,WeatherCatV1.22B15,2013-12-08 01:07:00,
2013-12-07 20:09:00,24.5,20.4,30.41,North,0,0.0,0.0,84,0.00,,,0.16,WeatherCatV1.22B15,2013-12-08 01:09:00,
2013-12-07 20:10:00,24.5,20.4,30.41,North,0,0.0,0.0,84,0.00,,,0.16,WeatherCatV1.22B15,2013-12-08 01:10:00,
2013-12-07 20:12:00,24.4,20.3,30.40,North,0,0.0,0.0,84,0.00,,,0.16,WeatherCatV1.22B15,2013-12-08 01:12:00,
2013-12-07 20:13:00,24.4,20.3,30.41,North,0,0.0,0.0,84,0.00,,,0.16,WeatherCatV1.22B15,2013-12-08 01:13:00,
2013-12-07 20:14:00,24.4,20.3,30.41,North,0,0.0,0.0,84,0.00,,,0.16,WeatherCatV1.22B15,2013-12-08 01:14:00,
2013-12-07 20:15:00,24.4,20.3,30.41,North,0,0.0,0.0,84,0.00,,,0.16,WeatherCatV1.22B15,2013-12-08 01:15:00,
2013-12-07 20:16:00,24.4,20.5,30.41,North,0,0.0,0.0,85,0.00,,,0.16,WeatherCatV1.22B15,2013-12-08 01:16:00,
2013-12-07 20:17:00,24.4,20.3,30.40,North,0,0.0,0.0,84,0.00,,,0.16,WeatherCatV1.22B15,2013-12-08 01:17:00,
2013-12-07 20:19:00,24.4,20.5,30.41,North,0,0.0,0.0,85,0.00,,,0.16,WeatherCatV1.22B15,2013-12-08 01:19:00,
2013-12-07 20:20:00,24.4,20.5,30.41,North,0,0.0,1.0,85,0.00,,,0.16,WeatherCatV1.22B15,2013-12-08 01:20:00,
2013-12-07 20:21:00,24.4,20.3,30.41,North,0,1.0,2.0,84,0.00,,,0.16,WeatherCatV1.22B15,2013-12-08 01:21:00,
2013-12-07 20:22:00,24.4,20.5,30.41,North,0,1.0,1.0,85,0.00,,,0.16,WeatherCatV1.22B15,2013-12-08 01:22:00,
2013-12-07 20:23:00,24.4,20.5,30.41,North,0,0.0,1.0,85,0.00,,,0.16,WeatherCatV1.22B15,2013-12-08 01:23:00,
2013-12-07 20:24:00,24.4,20.5,30.41,North,0,0.0,1.0,85,0.00,,,0.16,WeatherCatV1.22B15,2013-12-08 01:24:00,
2013-12-07 20:26:00,24.4,20.5,30.41,North,0,1.0,2.0,85,0.00,,,0.16,WeatherCatV1.22B15,2013-12-08 01:26:00,
2013-12-07 20:28:00,24.4,20.5,30.41,North,0,0.0,2.0,85,0.00,,,0.16,WeatherCatV1.22B15,2013-12-08 01:28:00,
2013-12-07 20:30:00,24.4,20.8,30.41,North,0,1.0,2.0,86,0.00,,,0.16,WeatherCatV1.22B15,2013-12-08 01:30:00,
2013-12-07 20:32:00,24.4,20.8,30.41,North,0,0.0,1.0,86,0.00,,,0.16,WeatherCatV1.22B15,2013-12-08 01:32:00,
2013-12-07 20:34:00,24.4,20.8,30.42,North,0,0.0,0.0,86,0.00,,,0.16,WeatherCatV1.22B15,2013-12-08 01:34:00,
2013-12-07 20:35:00,24.4,20.8,30.42,North,0,0.0,0.0,86,0.00,,,0.16,WeatherCatV1.22B15,2013-12-08 01:35:00,
2013-12-07 20:36:00,24.4,20.8,30.41,North,0,0.0,0.0,86,0.00,,,0.16,WeatherCatV1.22B15,2013-12-08 01:36:00,
2013-12-07 20:37:00,24.4,20.8,30.41,North,0,0.0,0.0,86,0.00,,,0.16,WeatherCatV1.22B15,2013-12-08 01:37:00,
2013-12-07 20:38:00,24.4,20.8,30.42,North,0,0.0,0.0,86,0.00,,,0.16,WeatherCatV1.22B15,2013-12-08 01:38:00,
2013-12-07 20:39:00,24.4,20.8,30.42,North,0,0.0,0.0,86,0.00,,,0.16,WeatherCatV1.22B15,2013-12-08 01:39:00,
2013-12-07 20:40:00,24.4,20.8,30.41,North,0,0.0,0.0,86,0.00,,,0.16,WeatherCatV1.22B15,2013-12-08 01:40:00,
2013-12-07 20:41:00,24.4,21.1,30.41,North,0,0.0,0.0,87,0.00,,,0.16,WeatherCatV1.22B15,2013-12-08 01:41:00,
2013-12-07 20:44:00,24.4,20.8,30.42,North,0,0.0,0.0,86,0.00,,,0.16,WeatherCatV1.22B15,2013-12-08 01:44:00,
2013-12-07 20:45:00,24.4,20.8,30.41,North,0,0.0,0.0,86,0.00,,,0.16,WeatherCatV1.22B15,2013-12-08 01:45:00,
2013-12-07 20:47:00,24.2,20.6,30.42,North,0,0.0,0.0,86,0.00,,,0.16,WeatherCatV1.22B15,2013-12-08 01:47:00,
2013-12-07 20:48:00,24.2,20.6,30.42,North,0,0.0,0.0,86,0.00,,,0.16,WeatherCatV1.22B15,2013-12-08 01:48:00,
2013-12-07 20:50:00,24.2,20.6,30.42,North,0,0.0,0.0,86,0.00,,,0.16,WeatherCatV1.22B15,2013-12-08 01:50:00,
2013-12-07 20:52:00,24.1,20.5,30.42,North,0,0.0,0.0,86,0.00,,,0.16,WeatherCatV1.22B15,2013-12-08 01:52:00,
2013-12-07 20:55:00,23.9,20.3,30.43,North,0,0.0,0.0,86,0.00,,,0.16,WeatherCatV1.22B15,2013-12-08 01:55:00,
2013-12-07 20:56:00,23.9,20.3,30.42,North,0,0.0,0.0,86,0.00,,,0.16,WeatherCatV1.22B15,2013-12-08 01:56:00,
2013-12-07 20:57:00,23.8,20.2,30.42,North,0,1.0,1.0,86,0.00,,,0.16,WeatherCatV1.22B15,2013-12-08 01:57:00,
2013-12-07 20:58:00,23.8,20.2,30.43,North,0,0.0,1.0,86,0.00,,,0.16,WeatherCatV1.22B15,2013-12-08 01:58:00,
2013-12-07 21:01:00,23.8,20.5,30.43,North,0,1.0,2.0,87,0.00,,,0.16,WeatherCatV1.22B15,2013-12-08 02:01:00,
2013-12-07 21:02:00,23.8,20.5,30.42,North,0,1.0,2.0,87,0.00,,,0.16,WeatherCatV1.22B15,2013-12-08 02:02:00,
2013-12-07 21:03:00,23.9,20.6,30.43,North,0,1.0,2.0,87,0.00,,,0.16,WeatherCatV1.22B15,2013-12-08 02:03:00,
2013-12-07 21:06:00,23.8,20.5,30.42,North,0,1.0,2.0,87,0.00,,,0.16,WeatherCatV1.22B15,2013-12-08 02:06:00,
2013-12-07 21:07:00,23.8,20.5,30.43,North,0,1.0,2.0,87,0.00,,,0.16,WeatherCatV1.22B15,2013-12-08 02:07:00,
2013-12-07 21:08:00,23.8,20.5,30.42,North,0,1.0,2.0,87,0.00,,,0.16,WeatherCatV1.22B15,2013-12-08 02:08:00,
2013-12-07 21:09:00,23.8,20.5,30.43,North,0,0.0,2.0,87,0.00,,,0.16,WeatherCatV1.22B15,2013-12-08 02:09:00,
2013-12-07 21:10:00,23.8,20.5,30.42,North,0,0.0,0.0,87,0.00,,,0.16,WeatherCatV1.22B15,2013-12-08 02:10:00,
2013-12-07 21:12:00,23.8,20.8,30.43,North,0,0.0,0.0,88,0.00,,,0.16,WeatherCatV1.22B15,2013-12-08 02:12:00,
2013-12-07 21:14:00,23.8,20.5,30.42,North,0,1.0,2.0,87,0.00,,,0.16,WeatherCatV1.22B15,2013-12-08 02:14:00,
2013-12-07 21:15:00,23.8,20.5,30.43,North,0,0.0,2.0,87,0.00,,,0.16,WeatherCatV1.22B15,2013-12-08 02:15:00,
2013-12-07 21:16:00,23.8,20.8,30.43,North,0,0.0,0.0,88,0.00,,,0.16,WeatherCatV1.22B15,2013-12-08 02:16:00,
2013-12-07 21:17:00,23.8,20.8,30.43,North,0,0.0,0.0,88,0.00,,,0.16,WeatherCatV1.22B15,2013-12-08 02:17:00,
2013-12-07 21:19:00,23.8,20.8,30.43,North,0,0.0,0.0,88,0.00,,,0.16,WeatherCatV1.22B15,2013-12-08 02:19:00,
2013-12-07 21:20:00,23.8,20.5,30.43,North,0,0.0,0.0,87,0.00,,,0.16,WeatherCatV1.22B15,2013-12-08 02:20:00,
2013-12-07 21:21:00,23.8,20.8,30.44,North,0,0.0,0.0,88,0.00,,,0.16,WeatherCatV1.22B15,2013-12-08 02:21:00,
2013-12-07 21:22:00,23.6,20.6,30.43,North,0,0.0,0.0,88,0.00,,,0.16,WeatherCatV1.22B15,2013-12-08 02:22:00,
2013-12-07 21:23:00,23.6,20.3,30.43,North,0,0.0,0.0,87,0.00,,,0.16,WeatherCatV1.22B15,2013-12-08 02:23:00,
2013-12-07 21:24:00,23.6,20.6,30.43,North,0,0.0,0.0,88,0.00,,,0.16,WeatherCatV1.22B15,2013-12-08 02:24:00,
2013-12-07 21:26:00,23.6,20.6,30.44,North,0,0.0,0.0,88,0.00,,,0.16,WeatherCatV1.22B15,2013-12-08 02:26:00,
2013-12-07 21:27:00,23.6,20.3,30.43,North,0,0.0,0.0,87,0.00,,,0.16,WeatherCatV1.22B15,2013-12-08 02:27:00,
2013-12-07 21:28:00,23.5,20.5,30.43,North,0,0.0,0.0,88,0.00,,,0.16,WeatherCatV1.22B15,2013-12-08 02:28:00,
2013-12-07 21:30:00,23.5,20.5,30.44,North,0,0.0,0.0,88,0.00,,,0.16,WeatherCatV1.22B15,2013-12-08 02:30:00,
2013-12-07 21:31:00,23.4,20.4,30.43,North,0,0.0,0.0,88,0.00,,,0.16,WeatherCatV1.22B15,2013-12-08 02:31:00,
2013-12-07 21:32:00,23.4,20.1,30.43,North,0,0.0,0.0,87,0.00,,,0.16,WeatherCatV1.22B15,2013-12-08 02:32:00,
2013-12-07 21:33:00,23.4,20.4,30.43,North,0,0.0,0.0,88,0.00,,,0.16,WeatherCatV1.22B15,2013-12-08 02:33:00,
2013-12-07 21:35:00,23.4,20.4,30.43,North,0,0.0,0.0,88,0.00,,,0.16,WeatherCatV1.22B15,2013-12-08 02:35:00,
2013-12-07 21:37:00,23.4,20.6,30.44,North,0,0.0,2.0,89,0.00,,,0.16,WeatherCatV1.22B15,2013-12-08 02:37:00,
2013-12-07 21:38:00,23.4,20.6,30.43,North,0,0.0,2.0,89,0.00,,,0.16,WeatherCatV1.22B15,2013-12-08 02:38:00,
2013-12-07 21:39:00,23.4,20.9,30.43,North,0,0.0,1.0,90,0.00,,,0.16,WeatherCatV1.22B15,2013-12-08 02:39:00,
2013-12-07 21:40:00,23.4,20.9,30.44,North,0,0.0,0.0,90,0.00,,,0.16,WeatherCatV1.22B15,2013-12-08 02:40:00,
2013-12-07 21:41:00,23.4,20.9,30.44,North,0,0.0,0.0,90,0.00,,,0.16,WeatherCatV1.22B15,2013-12-08 02:41:00,
2013-12-07 21:43:00,23.4,20.6,30.44,North,0,0.0,0.0,89,0.00,,,0.16,WeatherCatV1.22B15,2013-12-08 02:43:00,
2013-12-07 21:44:00,23.4,20.6,30.44,North,0,0.0,0.0,89,0.00,,,0.16,WeatherCatV1.22B15,2013-12-08 02:44:00,
2013-12-07 21:45:00,23.4,20.9,30.43,North,0,0.0,0.0,90,0.00,,,0.16,WeatherCatV1.22B15,2013-12-08 02:45:00,
2013-12-07 21:46:00,23.4,20.6,30.43,North,0,0.0,0.0,89,0.00,,,0.16,WeatherCatV1.22B15,2013-12-08 02:46:00,
2013-12-07 21:48:00,23.4,20.6,30.44,North,0,0.0,0.0,89,0.00,,,0.16,WeatherCatV1.22B15,2013-12-08 02:48:00,
2013-12-07 21:49:00,23.3,20.5,30.43,North,0,0.0,0.0,89,0.00,,,0.16,WeatherCatV1.22B15,2013-12-08 02:49:00,
2013-12-07 21:50:00,23.2,20.5,30.44,North,0,0.0,0.0,89,0.00,,,0.16,WeatherCatV1.22B15,2013-12-08 02:50:00,
2013-12-07 21:51:00,23.2,20.5,30.44,North,0,0.0,0.0,89,0.00,,,0.16,WeatherCatV1.22B15,2013-12-08 02:51:00,
2013-12-07 21:52:00,23.2,20.5,30.44,North,0,0.0,0.0,89,0.00,,,0.16,WeatherCatV1.22B15,2013-12-08 02:52:00,
2013-12-07 21:53:00,23.2,20.7,30.44,North,0,0.0,0.0,90,0.00,,,0.16,WeatherCatV1.22B15,2013-12-08 02:53:00,
2013-12-07 21:55:00,23.2,20.5,30.44,North,0,0.0,0.0,89,0.00,,,0.16,WeatherCatV1.22B15,2013-12-08 02:55:00,
2013-12-07 21:56:00,23.2,20.7,30.44,North,0,0.0,0.0,90,0.00,,,0.16,WeatherCatV1.22B15,2013-12-08 02:56:00,
2013-12-07 21:57:00,23.2,20.5,30.43,North,0,0.0,0.0,89,0.00,,,0.16,WeatherCatV1.22B15,2013-12-08 02:57:00,
2013-12-07 21:58:00,23.2,20.7,30.44,North,0,0.0,0.0,90,0.00,,,0.16,WeatherCatV1.22B15,2013-12-08 02:58:00,
2013-12-07 22:00:00,23.1,20.6,30.44,North,0,0.0,0.0,90,0.00,,,0.16,WeatherCatV1.22B15,2013-12-08 03:00:00,
2013-12-07 22:02:00,23.1,20.6,30.44,North,0,0.0,0.0,90,0.00,,,0.16,WeatherCatV1.22B15,2013-12-08 03:02:00,
2013-12-07 22:03:00,23.1,20.6,30.44,North,0,0.0,0.0,90,0.00,,,0.16,WeatherCatV1.22B15,2013-12-08 03:03:00,
2013-12-07 22:05:00,23.0,20.5,30.44,North,0,0.0,0.0,90,0.00,,,0.16,WeatherCatV1.22B15,2013-12-08 03:05:00,
2013-12-07 22:07:00,23.2,20.7,30.44,North,0,0.0,0.0,90,0.00,,,0.16,WeatherCatV1.22B15,2013-12-08 03:07:00,
2013-12-07 22:09:00,23.2,20.7,30.44,North,0,2.0,2.0,90,0.00,,,0.16,WeatherCatV1.22B15,2013-12-08 03:09:00,
2013-12-07 22:10:00,23.2,20.7,30.45,North,0,1.0,2.0,90,0.00,,,0.16,WeatherCatV1.22B15,2013-12-08 03:10:00,
2013-12-07 22:11:00,23.2,20.7,30.45,North,0,1.0,2.0,90,0.00,,,0.16,WeatherCatV1.22B15,2013-12-08 03:11:00,
2013-12-07 22:12:00,23.2,20.7,30.45,North,0,0.0,1.0,90,0.00,,,0.16,WeatherCatV1.22B15,2013-12-08 03:12:00,
2013-12-07 22:13:00,23.2,20.7,30.45,North,0,0.0,1.0,90,0.00,,,0.16,WeatherCatV1.22B15,2013-12-08 03:13:00,
2013-12-07 22:15:00,23.2,20.7,30.44,North,0,0.0,0.0,90,0.00,,,0.16,WeatherCatV1.22B15,2013-12-08 03:15:00,
2013-12-07 22:16:00,23.2,20.5,30.45,North,0,0.0,0.0,89,0.00,,,0.16,WeatherCatV1.22B15,2013-12-08 03:16:00,
2013-12-07 22:17:00,23.2,20.7,30.45,North,0,0.0,0.0,90,0.00,,,0.16,WeatherCatV1.22B15,2013-12-08 03:17:00,
2013-12-07 22:19:00,23.2,20.7,30.45,North,0,0.0,0.0,90,0.00,,,0.16,WeatherCatV1.22B15,2013-12-08 03:19:00,
2013-12-07 22:20:00,23.2,20.5,30.45,North,0,0.0,0.0,89,0.00,,,0.16,WeatherCatV1.22B15,2013-12-08 03:20:00,
2013-12-07 22:22:00,23.1,20.6,30.45,North,0,0.0,0.0,90,0.00,,,0.16,WeatherCatV1.22B15,2013-12-08 03:22:00,
2013-12-07 22:23:00,23.1,20.4,30.45,North,0,0.0,0.0,89,0.00,,,0.16,WeatherCatV1.22B15,2013-12-08 03:23:00,
2013-12-07 22:24:00,23.1,20.6,30.45,North,0,0.0,0.0,90,0.00,,,0.16,WeatherCatV1.22B15,2013-12-08 03:24:00,
2013-12-07 22:25:00,23.1,20.4,30.45,North,0,0.0,0.0,89,0.00,,,0.16,WeatherCatV1.22B15,2013-12-08 03:25:00,
2013-12-07 22:27:00,22.9,20.1,30.46,North,0,0.0,0.0,89,0.00,,,0.16,WeatherCatV1.22B15,2013-12-08 03:27:00,
2013-12-07 22:28:00,22.9,20.4,30.46,North,0,0.0,0.0,90,0.00,,,0.16,WeatherCatV1.22B15,2013-12-08 03:28:00,
2013-12-07 22:29:00,22.9,20.1,30.45,North,0,0.0,0.0,89,0.00,,,0.16,WeatherCatV1.22B15,2013-12-08 03:29:00,
2013-12-07 22:31:00,22.8,20.0,30.46,North,0,0.0,0.0,89,0.00,,,0.16,WeatherCatV1.22B15,2013-12-08 03:31:00,
2013-12-07 22:33:00,22.7,20.2,30.46,North,0,0.0,0.0,90,0.00,,,0.16,WeatherCatV1.22B15,2013-12-08 03:33:00,
2013-12-07 22:34:00,22.7,20.0,30.46,North,0,0.0,0.0,89,0.00,,,0.16,WeatherCatV1.22B15,2013-12-08 03:34:00,
2013-12-07 22:35:00,22.8,20.3,30.45,North,0,0.0,0.0,90,0.00,,,0.16,WeatherCatV1.22B15,2013-12-08 03:35:00,
2013-12-07 22:38:00,22.8,20.6,30.46,North,0,0.0,0.0,91,0.00,,,0.16,WeatherCatV1.22B15,2013-12-08 03:38:00,
2013-12-07 22:39:00,22.7,20.5,30.46,North,0,0.0,0.0,91,0.00,,,0.16,WeatherCatV1.22B15,2013-12-08 03:39:00,
2013-12-07 22:40:00,22.8,20.3,30.46,North,0,0.0,0.0,90,0.00,,,0.16,WeatherCatV1.22B15,2013-12-08 03:40:00,
2013-12-07 22:45:00,22.8,20.6,30.46,North,0,0.0,0.0,91,0.00,,,0.16,WeatherCatV1.22B15,2013-12-08 03:45:00,
2013-12-07 22:46:00,22.9,20.4,30.46,North,0,0.0,1.0,90,0.00,,,0.16,WeatherCatV1.22B15,2013-12-08 03:46:00,
2013-12-07 22:47:00,22.9,20.4,30.46,North,0,0.0,1.0,90,0.00,,,0.16,WeatherCatV1.22B15,2013-12-08 03:47:00,
2013-12-07 22:50:00,22.7,20.2,30.46,North,0,0.0,0.0,90,0.00,,,0.16,WeatherCatV1.22B15,2013-12-08 03:50:00,
2013-12-07 22:52:00,22.8,20.3,30.46,North,0,0.0,0.0,90,0.00,,,0.16,WeatherCatV1.22B15,2013-12-08 03:52:00,
2013-12-07 22:54:00,22.7,20.5,30.46,North,0,0.0,0.0,91,0.00,,,0.16,WeatherCatV1.22B15,2013-12-08 03:54:00,
2013-12-07 22:55:00,22.8,20.3,30.46,North,0,0.0,0.0,90,0.00,,,0.16,WeatherCatV1.22B15,2013-12-08 03:55:00,
2013-12-07 22:57:00,22.6,20.1,30.46,North,0,0.0,0.0,90,0.00,,,0.16,WeatherCatV1.22B15,2013-12-08 03:57:00,
2013-12-07 22:58:00,22.6,20.4,30.46,North,0,0.0,1.0,91,0.00,,,0.16,WeatherCatV1.22B15,2013-12-08 03:58:00,
2013-12-07 23:00:00,22.6,20.1,30.46,North,0,0.0,0.0,90,0.00,,,0.16,WeatherCatV1.22B15,2013-12-08 04:00:00,
2013-12-07 23:01:00,22.4,20.2,30.47,North,0,0.0,0.0,91,0.00,,,0.16,WeatherCatV1.22B15,2013-12-08 04:01:00,
2013-12-07 23:02:00,22.4,20.2,30.46,North,0,0.0,0.0,91,0.00,,,0.16,WeatherCatV1.22B15,2013-12-08 04:02:00,
2013-12-07 23:03:00,22.5,20.0,30.46,North,0,0.0,0.0,90,0.00,,,0.16,WeatherCatV1.22B15,2013-12-08 04:03:00,
2013-12-07 23:05:00,22.3,19.8,30.46,North,0,0.0,1.0,90,0.00,,,0.16,WeatherCatV1.22B15,2013-12-08 04:05:00,
2013-12-07 23:06:00,22.3,19.8,30.46,North,0,0.0,0.0,90,0.00,,,0.16,WeatherCatV1.22B15,2013-12-08 04:06:00,
2013-12-07 23:07:00,22.3,20.1,30.46,North,0,0.0,0.0,91,0.00,,,0.16,WeatherCatV1.22B15,2013-12-08 04:07:00,
2013-12-07 23:09:00,22.3,19.8,30.47,North,0,0.0,1.0,90,0.00,,,0.16,WeatherCatV1.22B15,2013-12-08 04:09:00,
2013-12-07 23:10:00,22.3,20.1,30.47,North,0,0.0,0.0,91,0.00,,,0.16,WeatherCatV1.22B15,2013-12-08 04:10:00,
2013-12-07 23:11:00,22.3,20.1,30.46,North,0,0.0,0.0,91,0.00,,,0.16,WeatherCatV1.22B15,2013-12-08 04:11:00,
2013-12-07 23:12:00,22.3,20.1,30.47,North,0,0.0,0.0,91,0.00,,,0.16,WeatherCatV1.22B15,2013-12-08 04:12:00,
2013-12-07 23:13:00,22.3,20.1,30.47,North,0,0.0,0.0,91,0.00,,,0.16,WeatherCatV1.22B15,2013-12-08 04:13:00,
2013-12-07 23:14:00,22.3,20.1,30.46,North,0,0.0,1.0,91,0.00,,,0.16,WeatherCatV1.22B15,2013-12-08 04:14:00,
2013-12-07 23:17:00,22.3,20.1,30.45,North,0,0.0,2.0,91,0.00,,,0.16,WeatherCatV1.22B15,2013-12-08 04:17:00,
2013-12-07 23:18:00,22.3,20.3,30.46,North,0,0.0,1.0,92,0.00,,,0.16,WeatherCatV1.22B15,2013-12-08 04:18:00,
2013-12-07 23:21:00,22.3,20.1,30.45,North,0,0.0,0.0,91,0.00,,,0.16,WeatherCatV1.22B15,2013-12-08 04:21:00,
2013-12-07 23:22:00,22.3,20.3,30.46,North,0,0.0,0.0,92,0.00,,,0.16,WeatherCatV1.22B15,2013-12-08 04:22:00,
2013-12-07 23:23:00,22.3,20.3,30.46,North,0,0.0,0.0,92,0.00,,,0.16,WeatherCatV1.22B15,2013-12-08 04:23:00,
2013-12-07 23:24:00,22.3,20.3,30.46,North,0,0.0,0.0,92,0.00,,,0.16,WeatherCatV1.22B15,2013-12-08 04:24:00,
2013-12-07 23:27:00,22.3,20.3,30.46,North,0,0.0,0.0,92,0.00,,,0.16,WeatherCatV1.22B15,2013-12-08 04:27:00,
2013-12-07 23:28:00,22.3,20.3,30.46,North,0,0.0,0.0,92,0.00,,,0.16,WeatherCatV1.22B15,2013-12-08 04:28:00,
2013-12-07 23:29:00,22.2,20.0,30.46,North,0,0.0,0.0,91,0.00,,,0.16,WeatherCatV1.22B15,2013-12-08 04:29:00,
2013-12-07 23:33:00,22.2,20.0,30.47,North,0,0.0,0.0,91,0.00,,,0.16,WeatherCatV1.22B15,2013-12-08 04:33:00,
2013-12-07 23:34:00,22.2,20.2,30.47,North,0,0.0,0.0,92,0.00,,,0.16,WeatherCatV1.22B15,2013-12-08 04:34:00,
2013-12-07 23:35:00,22.0,20.0,30.47,North,0,0.0,0.0,92,0.00,,,0.16,WeatherCatV1.22B15,2013-12-08 04:35:00,
2013-12-07 23:36:00,22.0,19.8,30.46,North,0,0.0,0.0,91,0.00,,,0.16,WeatherCatV1.22B15,2013-12-08 04:36:00,
2013-12-07 23:38:00,22.0,19.8,30.46,North,0,0.0,0.0,91,0.00,,,0.16,WeatherCatV1.22B15,2013-12-08 04:38:00,
2013-12-07 23:39:00,21.8,19.6,30.46,North,0,0.0,0.0,91,0.00,,,0.16,WeatherCatV1.22B15,2013-12-08 04:39:00,
2013-12-07 23:40:00,21.8,19.6,30.47,North,0,0.0,0.0,91,0.00,,,0.16,WeatherCatV1.22B15,2013-12-08 04:40:00,
2013-12-07 23:42:00,21.8,19.8,30.47,North,0,0.0,0.0,92,0.00,,,0.16,WeatherCatV1.22B15,2013-12-08 04:42:00,
2013-12-07 23:43:00,21.8,19.6,30.46,North,0,0.0,0.0,91,0.00,,,0.16,WeatherCatV1.22B15,2013-12-08 04:43:00,
2013-12-07 23:45:00,21.7,19.7,30.47,North,0,0.0,0.0,92,0.00,,,0.16,WeatherCatV1.22B15,2013-12-08 04:45:00,
2013-12-07 23:46:00,21.7,19.5,30.47,North,0,0.0,0.0,91,0.00,,,0.16,WeatherCatV1.22B15,2013-12-08 04:46:00,
2013-12-07 23:47:00,21.7,19.7,30.47,North,0,0.0,0.0,92,0.00,,,0.16,WeatherCatV1.22B15,2013-12-08 04:47:00,
2013-12-07 23:49:00,21.7,19.5,30.46,North,0,0.0,0.0,91,0.00,,,0.16,WeatherCatV1.22B15,2013-12-08 04:49:00,
2013-12-07 23:50:00,21.7,19.7,30.46,North,0,0.0,0.0,92,0.00,,,0.16,WeatherCatV1.22B15,2013-12-08 04:50:00,
2013-12-07 23:51:00,21.7,19.7,30.47,North,0,0.0,0.0,92,0.00,,,0.16,WeatherCatV1.22B15,2013-12-08 04:51:00,
2013-12-07 23:54:00,21.7,19.7,30.47,North,0,0.0,0.0,92,0.00,,,0.16,WeatherCatV1.22B15,2013-12-08 04:54:00,
2013-12-07 23:55:00,21.7,19.7,30.47,North,0,0.0,0.0,92,0.00,,,0.16,WeatherCatV1.22B15,2013-12-08 04:55:00,
2013-12-07 23:56:00,21.7,19.7,30.46,North,0,0.0,0.0,92,0.00,,,0.16,WeatherCatV1.22B15,2013-12-08 04:56:00,
2013-12-07 23:57:00,21.7,19.7,30.47,North,0,0.0,0.0,92,0.00,,,0.16,WeatherCatV1.22B15,2013-12-08 04:57:00,
2013-12-07 23:58:00,21.7,19.7,30.47,North,0,0.0,0.0,92,0.00,,,0.16,WeatherCatV1.22B15,2013-12-08 04:58:00,